| time (UTC) | temp F | wind direction | speed MPH | gust MPH | rain 1hr in | rain 24hr in | rain mn in | humidity % | barometer mb |
| 20260903063900 | 78 | 103 | 7.0 | 14.0 | 0.00 | 0.00 | 0.00 | 75 | 1012.3 |
| 20260903063759 | 78 | 91 | 6.0 | 14.0 | 0.00 | 0.00 | 0.00 | 75 | 1012.4 |
| 20260903063659 | 78 | 89 | 5.0 | 14.0 | 0.00 | 0.00 | 0.00 | 75 | 1012.4 |
| 20260903063359 | 78 | 116 | 3.0 | 11.0 | 0.00 | 0.00 | 0.00 | 75 | 1012.4 |
| 20260903063200 | 78 | 113 | 3.0 | 11.0 | 0.00 | 0.00 | 0.00 | 75 | 1012.4 |
| 20260903063105 | 78 | 109 | 3.0 | 11.0 | 0.00 | 0.00 | 0.00 | 75 | 1010.5 |
| 20260903063100 | 78 | 109 | 4.0 | 11.0 | 0.00 | 0.00 | 0.00 | 75 | 1012.4 |
| 20260903062959 | 79 | 121 | 5.0 | 11.0 | 0.00 | 0.00 | 0.00 | 75 | 1012.5 |
| 20260903062859 | 78 | 111 | 6.0 | 11.0 | 0.00 | 0.00 | 0.00 | 75 | 1012.4 |
| 20260903062759 | 79 | 98 | 5.0 | 11.0 | 0.00 | 0.00 | 0.00 | 75 | 1012.5 |
| 20260903062559 | 79 | 64 | 2.0 | 9.0 | 0.00 | 0.00 | 0.00 | 74 | 1012.5 |
| 20260903062458 | 79 | 107 | 2.0 | 7.0 | 0.00 | 0.00 | 0.00 | 74 | 1012.5 |
| 20260903062359 | 79 | 121 | 2.0 | 7.0 | 0.00 | 0.00 | 0.00 | 74 | 1012.5 |
| 20260903062258 | 79 | 124 | 3.0 | 7.0 | 0.00 | 0.00 | 0.00 | 74 | 1012.5 |
| 20260903062158 | 79 | 128 | 3.0 | 9.0 | 0.00 | 0.00 | 0.00 | 74 | 1012.5 |
| 20260903062100 | 79 | 108 | 3.0 | 9.0 | 0.00 | 0.00 | 0.00 | 74 | 1012.5 |
| 20260903061900 | 79 | 127 | 2.0 | 9.0 | 0.00 | 0.00 | 0.00 | 74 | 1012.5 |
| 20260903061800 | 79 | 115 | 2.0 | 9.0 | 0.00 | 0.00 | 0.00 | 74 | 1012.5 |
| 20260903061659 | 79 | 118 | 4.0 | 9.0 | 0.00 | 0.00 | 0.00 | 74 | 1012.5 |
| 20260903061607 | 79 | 130 | 4.0 | 9.0 | 0.00 | 0.00 | 0.00 | 74 | 1010.6 |
| 20260903061600 | 79 | 130 | 5.0 | 9.0 | 0.00 | 0.00 | 0.00 | 74 | 1012.5 |
| 20260903061459 | 79 | 116 | 5.0 | 10.0 | 0.00 | 0.00 | 0.00 | 73 | 1012.5 |
| 20260903061300 | 79 | 115 | 4.0 | 10.0 | 0.00 | 0.00 | 0.00 | 73 | 1012.6 |
| 20260903061059 | 79 | 115 | 3.0 | 11.0 | 0.00 | 0.00 | 0.00 | 73 | 1012.6 |
| 20260903061000 | 79 | 119 | 4.0 | 11.0 | 0.00 | 0.00 | 0.00 | 73 | 1012.6 |
| 20260903060900 | 79 | 109 | 5.0 | 11.0 | 0.00 | 0.00 | 0.00 | 73 | 1012.6 |
| 20260903060759 | 79 | 111 | 6.0 | 12.0 | 0.00 | 0.00 | 0.00 | 73 | 1012.7 |
| 20260903060459 | 79 | 108 | 5.0 | 13.0 | 0.00 | 0.00 | 0.00 | 73 | 1012.7 |
| 20260903060359 | 79 | 115 | 6.0 | 15.0 | 0.00 | 0.00 | 0.00 | 73 | 1012.6 |
| 20260903060259 | 79 | 130 | 7.0 | 15.0 | 0.00 | 0.00 | 0.00 | 73 | 1012.6 |
| 20260903060159 | 79 | 108 | 7.0 | 15.0 | 0.00 | 0.00 | 0.00 | 73 | 1012.6 |
| 20260903060013 | 79 | 115 | 8.0 | 15.0 | 0.00 | 0.00 | 0.00 | 73 | 1010.7 |
| 20260903060005 | 79 | 115 | 9.0 | 15.0 | 0.00 | 0.00 | 0.00 | 73 | 1012.6 |
| 20260903055804 | 80 | 115 | 8.0 | 15.0 | 0.00 | 0.00 | 0.00 | 72 | 1012.6 |
| 20260903055705 | 80 | 133 | 9.0 | 15.0 | 0.00 | 0.00 | 0.00 | 72 | 1012.6 |
| 20260903055604 | 80 | 103 | 10.0 | 15.0 | 0.00 | 0.00 | 0.00 | 72 | 1012.6 |
| 20260903055503 | 80 | 131 | 10.0 | 15.0 | 0.00 | 0.00 | 0.00 | 72 | 1012.6 |
| 20260903055306 | 80 | 98 | 8.0 | 15.0 | 0.00 | 0.00 | 0.00 | 72 | 1012.7 |
| 20260903055203 | 80 | 141 | 8.0 | 15.0 | 0.00 | 0.00 | 0.00 | 72 | 1012.7 |
| 20260903055104 | 80 | 112 | 8.0 | 15.0 | 0.00 | 0.00 | 0.00 | 72 | 1012.8 |
| 20260903055004 | 80 | 121 | 7.0 | 15.0 | 0.00 | 0.00 | 0.00 | 71 | 1012.8 |
| 20260903054904 | 80 | 109 | 6.0 | 15.0 | 0.00 | 0.00 | 0.00 | 71 | 1012.7 |
| 20260903054805 | 80 | 125 | 7.0 | 15.0 | 0.00 | 0.00 | 0.00 | 71 | 1012.7 |
| 20260903054705 | 80 | 119 | 8.0 | 15.0 | 0.00 | 0.00 | 0.00 | 71 | 1012.7 |
| 20260903054504 | 80 | 113 | 8.0 | 17.0 | 0.00 | 0.00 | 0.00 | 71 | 1012.8 |
| 20260903054404 | 80 | 124 | 9.0 | 17.0 | 0.00 | 0.00 | 0.00 | 71 | 1012.8 |
| 20260903054305 | 80 | 127 | 9.0 | 17.0 | 0.00 | 0.00 | 0.00 | 71 | 1012.8 |
| 20260903054204 | 80 | 160 | 8.0 | 17.0 | 0.00 | 0.00 | 0.00 | 71 | 1012.8 |
| 20260903054104 | 80 | 83 | 9.0 | 17.0 | 0.00 | 0.00 | 0.00 | 71 | 1012.8 |
| 20260903053905 | 80 | 120 | 10.0 | 17.0 | 0.00 | 0.00 | 0.00 | 71 | 1012.8 |
| 20260903053704 | 80 | 107 | 11.0 | 17.0 | 0.00 | 0.00 | 0.00 | 70 | 1012.8 |
| 20260903053405 | 80 | 136 | 9.0 | 17.0 | 0.00 | 0.00 | 0.00 | 70 | 1012.8 |
| 20260903053303 | 81 | 132 | 9.0 | 17.0 | 0.00 | 0.00 | 0.00 | 69 | 1012.8 |
| 20260903053205 | 81 | 131 | 11.0 | 17.0 | 0.00 | 0.00 | 0.00 | 69 | 1012.8 |
| 20260903053005 | 81 | 105 | 10.0 | 17.0 | 0.00 | 0.00 | 0.00 | 69 | 1012.7 |
| 20260903052805 | 81 | 101 | 10.0 | 17.0 | 0.00 | 0.00 | 0.00 | 69 | 1012.7 |
| 20260903052705 | 81 | 107 | 10.0 | 17.0 | 0.00 | 0.00 | 0.00 | 69 | 1012.7 |
| 20260903052603 | 81 | 104 | 11.0 | 17.0 | 0.00 | 0.00 | 0.00 | 69 | 1012.7 |
| 20260903052504 | 81 | 106 | 10.0 | 17.0 | 0.00 | 0.00 | 0.00 | 69 | 1012.7 |
| 20260903052406 | 81 | 129 | 9.0 | 15.0 | 0.00 | 0.00 | 0.00 | 69 | 1012.7 |
| 20260903052306 | 81 | 109 | 9.0 | 15.0 | 0.00 | 0.00 | 0.00 | 68 | 1012.7 |
| 20260903052204 | 81 | 110 | 9.0 | 15.0 | 0.00 | 0.00 | 0.00 | 68 | 1012.7 |
| 20260903052105 | 81 | 100 | 9.0 | 15.0 | 0.00 | 0.00 | 0.00 | 68 | 1012.7 |
| 20260903052003 | 81 | 109 | 9.0 | 15.0 | 0.00 | 0.00 | 0.00 | 68 | 1012.7 |
| 20260903051904 | 81 | 116 | 10.0 | 15.0 | 0.00 | 0.00 | 0.00 | 68 | 1012.8 |
| 20260903051805 | 81 | 93 | 9.0 | 15.0 | 0.00 | 0.00 | 0.00 | 68 | 1012.7 |
| 20260903051705 | 81 | 121 | 8.0 | 16.0 | 0.00 | 0.00 | 0.00 | 68 | 1012.7 |
| 20260903051605 | 81 | 96 | 8.0 | 16.0 | 0.00 | 0.00 | 0.00 | 68 | 1012.7 |
| 20260903051505 | 81 | 110 | 10.0 | 16.0 | 0.00 | 0.00 | 0.00 | 68 | 1012.8 |
| 20260903051503 | 81 | 110 | 9.0 | 16.0 | 0.00 | 0.00 | 0.00 | 68 | 1010.9 |
| 20260903051405 | 81 | 86 | 9.0 | 16.0 | 0.00 | 0.00 | 0.00 | 67 | 1012.8 |
| 20260903051304 | 81 | 103 | 9.0 | 16.0 | 0.00 | 0.00 | 0.00 | 67 | 1012.8 |
| 20260903051104 | 81 | 102 | 8.0 | 16.0 | 0.00 | 0.00 | 0.00 | 67 | 1012.8 |
| 20260903051003 | 81 | 106 | 9.0 | 16.0 | 0.00 | 0.00 | 0.00 | 67 | 1012.8 |
| 20260903050903 | 81 | 126 | 10.0 | 17.0 | 0.00 | 0.00 | 0.00 | 67 | 1012.9 |
| 20260903050804 | 82 | 111 | 10.0 | 17.0 | 0.00 | 0.00 | 0.00 | 67 | 1012.9 |
| 20260903050706 | 82 | 114 | 8.0 | 17.0 | 0.00 | 0.00 | 0.00 | 66 | 1012.9 |
| 20260903050604 | 82 | 99 | 9.0 | 17.0 | 0.00 | 0.00 | 0.00 | 66 | 1012.8 |
| 20260903050503 | 82 | 107 | 8.0 | 17.0 | 0.00 | 0.00 | 0.00 | 66 | 1012.8 |
| 20260903050403 | 82 | 114 | 9.0 | 17.0 | 0.00 | 0.00 | 0.00 | 66 | 1012.8 |
| 20260903050303 | 82 | 111 | 10.0 | 17.0 | 0.00 | 0.00 | 0.00 | 66 | 1012.9 |
| 20260903050205 | 82 | 102 | 9.0 | 17.0 | 0.00 | 0.00 | 0.00 | 66 | 1012.7 |
| 20260903050105 | 82 | 114 | 10.0 | 17.0 | 0.00 | 0.00 | 0.00 | 66 | 1012.8 |
| 20260903050004 | 82 | 104 | 9.0 | 15.0 | 0.00 | 0.00 | 0.00 | 66 | 1012.9 |
| 20260903045903 | 82 | 98 | 9.0 | 13.0 | 0.00 | 0.00 | 0.00 | 66 | 1012.9 |
| 20260903045803 | 82 | 112 | 8.0 | 13.0 | 0.00 | 0.00 | 0.00 | 65 | 1012.9 |
| 20260903045704 | 82 | 105 | 8.0 | 13.0 | 0.00 | 0.00 | 0.00 | 65 | 1012.8 |
| 20260903045604 | 82 | 94 | 8.0 | 12.0 | 0.00 | 0.00 | 0.00 | 65 | 1012.9 |
| 20260903045503 | 82 | 124 | 9.0 | 12.0 | 0.00 | 0.00 | 0.00 | 65 | 1012.8 |
| 20260903045404 | 82 | 103 | 7.0 | 12.0 | 0.00 | 0.00 | 0.00 | 65 | 1012.8 |
| 20260903045306 | 82 | 115 | 7.0 | 12.0 | 0.00 | 0.00 | 0.00 | 65 | 1012.8 |
| 20260903045204 | 82 | 103 | 8.0 | 12.0 | 0.00 | 0.00 | 0.00 | 65 | 1012.8 |
| 20260903045104 | 82 | 113 | 8.0 | 13.0 | 0.00 | 0.00 | 0.00 | 65 | 1012.8 |
| 20260903044904 | 82 | 103 | 6.0 | 13.0 | 0.00 | 0.00 | 0.00 | 65 | 1012.8 |
| 20260903044804 | 82 | 94 | 7.0 | 13.0 | 0.00 | 0.00 | 0.00 | 65 | 1012.8 |
| 20260903044704 | 82 | 106 | 6.0 | 13.0 | 0.00 | 0.00 | 0.00 | 65 | 1012.9 |
| 20260903044605 | 82 | 116 | 7.0 | 13.0 | 0.00 | 0.00 | 0.00 | 65 | 1012.8 |
| 20260903044503 | 82 | 121 | 7.0 | 13.0 | 0.00 | 0.00 | 0.00 | 64 | 1012.8 |
| 20260903044303 | 83 | 106 | 7.0 | 13.0 | 0.00 | 0.00 | 0.00 | 64 | 1012.8 |
| 20260903044203 | 83 | 130 | 7.0 | 14.0 | 0.00 | 0.00 | 0.00 | 64 | 1012.8 |
| 20260903044103 | 83 | 121 | 7.0 | 14.0 | 0.00 | 0.00 | 0.00 | 64 | 1012.8 |
| 20260903044006 | 83 | 100 | 7.0 | 14.0 | 0.00 | 0.00 | 0.00 | 64 | 1012.8 |
| 20260903043904 | 83 | 136 | 7.0 | 14.0 | 0.00 | 0.00 | 0.00 | 64 | 1012.8 |
| 20260903043804 | 83 | 120 | 8.0 | 14.0 | 0.00 | 0.00 | 0.00 | 64 | 1012.8 |
| 20260903043704 | 83 | 115 | 7.0 | 14.0 | 0.00 | 0.00 | 0.00 | 64 | 1012.8 |
| 20260903043604 | 83 | 122 | 7.0 | 14.0 | 0.00 | 0.00 | 0.00 | 64 | 1012.8 |
| 20260903043504 | 83 | 109 | 7.0 | 14.0 | 0.00 | 0.00 | 0.00 | 64 | 1012.8 |
| 20260903043404 | 83 | 126 | 8.0 | 14.0 | 0.00 | 0.00 | 0.00 | 64 | 1012.8 |
| 20260903043304 | 83 | 119 | 7.0 | 14.0 | 0.00 | 0.00 | 0.00 | 63 | 1012.8 |
| 20260903043204 | 83 | 97 | 6.0 | 12.0 | 0.00 | 0.00 | 0.00 | 63 | 1012.8 |
| 20260903043104 | 83 | 108 | 6.0 | 12.0 | 0.00 | 0.00 | 0.00 | 63 | 1012.8 |
| 20260903043004 | 83 | 115 | 7.0 | 12.0 | 0.00 | 0.00 | 0.00 | 63 | 1012.8 |
| 20260903042904 | 83 | 110 | 8.0 | 14.0 | 0.00 | 0.00 | 0.00 | 63 | 1012.8 |
| 20260903042804 | 83 | 117 | 8.0 | 14.0 | 0.00 | 0.00 | 0.00 | 63 | 1012.8 |
| 20260903042704 | 83 | 128 | 8.0 | 14.0 | 0.00 | 0.00 | 0.00 | 63 | 1012.8 |
| 20260903042604 | 83 | 132 | 8.0 | 14.0 | 0.00 | 0.00 | 0.00 | 63 | 1012.8 |
| 20260903042504 | 83 | 121 | 7.0 | 14.0 | 0.00 | 0.00 | 0.00 | 63 | 1012.8 |
| 20260903042404 | 83 | 135 | 7.0 | 14.0 | 0.00 | 0.00 | 0.00 | 63 | 1012.8 |
| 20260903042306 | 83 | 126 | 7.0 | 14.0 | 0.00 | 0.00 | 0.00 | 63 | 1012.8 |
| 20260903042204 | 83 | 118 | 9.0 | 14.0 | 0.00 | 0.00 | 0.00 | 63 | 1012.8 |
| 20260903042104 | 83 | 121 | 8.0 | 14.0 | 0.00 | 0.00 | 0.00 | 63 | 1012.8 |
| 20260903042003 | 83 | 129 | 8.0 | 14.0 | 0.00 | 0.00 | 0.00 | 63 | 1012.8 |
| 20260903041903 | 83 | 131 | 6.0 | 14.0 | 0.00 | 0.00 | 0.00 | 63 | 1012.8 |
| 20260903041803 | 83 | 117 | 6.0 | 14.0 | 0.00 | 0.00 | 0.00 | 63 | 1012.8 |
| 20260903041604 | 83 | 120 | 8.0 | 14.0 | 0.00 | 0.00 | 0.00 | 63 | 1012.9 |
| 20260903041510 | 83 | 142 | 8.0 | 14.0 | 0.00 | 0.00 | 0.00 | 63 | 1010.9 |
| 20260903041504 | 83 | 142 | 9.0 | 14.0 | 0.00 | 0.00 | 0.00 | 63 | 1012.8 |
| 20260903041404 | 83 | 114 | 9.0 | 14.0 | 0.00 | 0.00 | 0.00 | 63 | 1012.9 |
| 20260903041304 | 83 | 141 | 8.0 | 12.0 | 0.00 | 0.00 | 0.00 | 63 | 1012.9 |
| 20260903041204 | 83 | 129 | 7.0 | 11.0 | 0.00 | 0.00 | 0.00 | 63 | 1012.9 |
| 20260903041104 | 83 | 140 | 7.0 | 11.0 | 0.00 | 0.00 | 0.00 | 63 | 1012.9 |
| 20260903041004 | 84 | 115 | 7.0 | 11.0 | 0.00 | 0.00 | 0.00 | 63 | 1012.9 |
| 20260903040904 | 84 | 130 | 8.0 | 11.0 | 0.00 | 0.00 | 0.00 | 63 | 1012.9 |
| 20260903040804 | 84 | 121 | 7.0 | 11.0 | 0.00 | 0.00 | 0.00 | 63 | 1012.9 |
| 20260903040703 | 84 | 107 | 6.0 | 11.0 | 0.00 | 0.00 | 0.00 | 63 | 1012.9 |
| 20260903040604 | 84 | 120 | 6.0 | 10.0 | 0.00 | 0.00 | 0.00 | 63 | 1012.9 |
| 20260903040504 | 84 | 114 | 6.0 | 12.0 | 0.00 | 0.00 | 0.00 | 63 | 1012.8 |
| 20260903040404 | 84 | 111 | 7.0 | 12.0 | 0.00 | 0.00 | 0.00 | 63 | 1013.0 |
| 20260903040304 | 84 | 109 | 7.0 | 12.0 | 0.00 | 0.00 | 0.00 | 63 | 1012.9 |
| 20260903040203 | 84 | 121 | 6.0 | 15.0 | 0.00 | 0.00 | 0.00 | 62 | 1012.9 |
| 20260903040104 | 84 | 120 | 6.0 | 15.0 | 0.00 | 0.00 | 0.00 | 62 | 1013.0 |
| 20260903040008 | 84 | 116 | 5.0 | 15.0 | 0.00 | 0.00 | 0.00 | 62 | 1011.0 |
| 20260903035905 | 84 | 108 | 7.0 | 15.0 | 0.00 | 0.00 | 0.00 | 62 | 1013.0 |
| 20260903035804 | 84 | 113 | 7.0 | 15.0 | 0.00 | 0.00 | 0.00 | 62 | 1013.0 |
| 20260903035704 | 84 | 111 | 7.0 | 15.0 | 0.00 | 0.00 | 0.00 | 62 | 1013.0 |
| 20260903035605 | 84 | 109 | 8.0 | 15.0 | 0.00 | 0.00 | 0.00 | 62 | 1013.0 |
| 20260903035503 | 84 | 108 | 10.0 | 15.0 | 0.00 | 0.00 | 0.00 | 62 | 1013.0 |
| 20260903035405 | 84 | 139 | 10.0 | 15.0 | 0.00 | 0.00 | 0.00 | 62 | 1013.1 |
| 20260903035306 | 84 | 128 | 9.0 | 15.0 | 0.00 | 0.00 | 0.00 | 62 | 1013.0 |
| 20260903035104 | 84 | 108 | 7.0 | 11.0 | 0.00 | 0.00 | 0.00 | 62 | 1013.0 |
| 20260903035004 | 84 | 121 | 7.0 | 11.0 | 0.00 | 0.00 | 0.00 | 62 | 1013.1 |
| 20260903034804 | 84 | 111 | 5.0 | 11.0 | 0.00 | 0.00 | 0.00 | 61 | 1013.0 |
| 20260903034604 | 85 | 126 | 4.0 | 12.0 | 0.00 | 0.00 | 0.00 | 61 | 1013.1 |
| 20260903034504 | 85 | 128 | 5.0 | 12.0 | 0.00 | 0.00 | 0.00 | 60 | 1013.1 |
| 20260903034404 | 85 | 123 | 6.0 | 12.0 | 0.00 | 0.00 | 0.00 | 60 | 1013.1 |
| 20260903034304 | 85 | 117 | 5.0 | 12.0 | 0.00 | 0.00 | 0.00 | 60 | 1013.1 |
| 20260903034204 | 85 | 151 | 4.0 | 12.0 | 0.00 | 0.00 | 0.00 | 60 | 1013.1 |
| 20260903034104 | 85 | 121 | 4.0 | 12.0 | 0.00 | 0.00 | 0.00 | 60 | 1013.1 |
| 20260903034005 | 85 | 118 | 5.0 | 12.0 | 0.00 | 0.00 | 0.00 | 60 | 1013.1 |
| 20260903033905 | 85 | 128 | 6.0 | 12.0 | 0.00 | 0.00 | 0.00 | 60 | 1013.0 |
| 20260903033804 | 85 | 110 | 8.0 | 12.0 | 0.00 | 0.00 | 0.00 | 60 | 1013.0 |
| 20260903033704 | 85 | 112 | 8.0 | 12.0 | 0.00 | 0.00 | 0.00 | 60 | 1013.1 |
| 20260903033504 | 85 | 121 | 7.0 | 12.0 | 0.00 | 0.00 | 0.00 | 59 | 1013.0 |
| 20260903033404 | 85 | 115 | 7.0 | 13.0 | 0.00 | 0.00 | 0.00 | 59 | 1013.0 |
| 20260903033105 | 85 | 103 | 8.0 | 13.0 | 0.00 | 0.00 | 0.00 | 59 | 1013.0 |
| 20260903033004 | 85 | 119 | 7.0 | 13.0 | 0.00 | 0.00 | 0.00 | 59 | 1011.1 |
| 20260903032904 | 85 | 121 | 8.0 | 13.0 | 0.00 | 0.00 | 0.00 | 59 | 1013.0 |
| 20260903032804 | 86 | 102 | 8.0 | 13.0 | 0.00 | 0.00 | 0.00 | 59 | 1012.9 |
| 20260903032704 | 86 | 120 | 9.0 | 13.0 | 0.00 | 0.00 | 0.00 | 59 | 1012.8 |
| 20260903032604 | 86 | 117 | 9.0 | 13.0 | 0.00 | 0.00 | 0.00 | 59 | 1012.8 |
| 20260903032503 | 86 | 115 | 9.0 | 12.0 | 0.00 | 0.00 | 0.00 | 59 | 1012.8 |
| 20260903032404 | 86 | 118 | 8.0 | 12.0 | 0.00 | 0.00 | 0.00 | 58 | 1012.8 |
| 20260903032305 | 86 | 105 | 8.0 | 11.0 | 0.00 | 0.00 | 0.00 | 58 | 1012.8 |
| 20260903032203 | 86 | 122 | 7.0 | 11.0 | 0.00 | 0.00 | 0.00 | 58 | 1012.8 |
| 20260903032103 | 86 | 129 | 7.0 | 11.0 | 0.00 | 0.00 | 0.00 | 58 | 1012.8 |
| 20260903031904 | 86 | 113 | 6.0 | 11.0 | 0.00 | 0.00 | 0.00 | 58 | 1012.8 |
| 20260903031805 | 86 | 105 | 6.0 | 11.0 | 0.00 | 0.00 | 0.00 | 58 | 1012.8 |
| 20260903031611 | 86 | 117 | 5.0 | 11.0 | 0.00 | 0.00 | 0.00 | 58 | 1012.9 |
| 20260903031504 | 86 | 125 | 6.0 | 11.0 | 0.00 | 0.00 | 0.00 | 57 | 1012.8 |
| 20260903031404 | 86 | 105 | 5.0 | 11.0 | 0.00 | 0.00 | 0.00 | 57 | 1012.8 |
| 20260903031303 | 86 | 112 | 5.0 | 11.0 | 0.00 | 0.00 | 0.00 | 57 | 1012.8 |
| 20260903031204 | 86 | 130 | 5.0 | 11.0 | 0.00 | 0.00 | 0.00 | 57 | 1012.8 |
| 20260903031104 | 86 | 117 | 5.0 | 11.0 | 0.00 | 0.00 | 0.00 | 57 | 1012.8 |
| 20260903031004 | 86 | 117 | 5.0 | 12.0 | 0.00 | 0.00 | 0.00 | 57 | 1012.7 |
| 20260903030904 | 87 | 111 | 5.0 | 12.0 | 0.00 | 0.00 | 0.00 | 57 | 1012.7 |
| 20260903030803 | 87 | 121 | 6.0 | 12.0 | 0.00 | 0.00 | 0.00 | 57 | 1012.7 |
| 20260903030704 | 87 | 117 | 6.0 | 12.0 | 0.00 | 0.00 | 0.00 | 57 | 1012.8 |
| 20260903030603 | 87 | 117 | 7.0 | 12.0 | 0.00 | 0.00 | 0.00 | 57 | 1012.7 |
| 20260903030403 | 87 | 130 | 9.0 | 11.0 | 0.00 | 0.00 | 0.00 | 57 | 1012.7 |
| 20260903030205 | 87 | 111 | 7.0 | 11.0 | 0.00 | 0.00 | 0.00 | 56 | 1012.7 |
| 20260903030104 | 87 | 125 | 6.0 | 11.0 | 0.00 | 0.00 | 0.00 | 56 | 1012.7 |
| 20260903030004 | 87 | 108 | 6.0 | 11.0 | 0.00 | 0.00 | 0.00 | 56 | 1010.7 |
| 20260903025903 | 87 | 101 | 7.0 | 11.0 | 0.00 | 0.00 | 0.00 | 56 | 1012.6 |
| 20260903025803 | 87 | 114 | 7.0 | 11.0 | 0.00 | 0.00 | 0.00 | 56 | 1012.6 |
| 20260903025704 | 87 | 99 | 7.0 | 11.0 | 0.00 | 0.00 | 0.00 | 56 | 1012.6 |
| 20260903025603 | 87 | 109 | 5.0 | 11.0 | 0.00 | 0.00 | 0.00 | 56 | 1012.6 |
| 20260903025504 | 87 | 114 | 5.0 | 11.0 | 0.00 | 0.00 | 0.00 | 56 | 1012.6 |
| 20260903025404 | 87 | 108 | 6.0 | 11.0 | 0.00 | 0.00 | 0.00 | 56 | 1012.6 |
| 20260903025306 | 87 | 109 | 6.0 | 11.0 | 0.00 | 0.00 | 0.00 | 56 | 1012.6 |
| 20260903025204 | 87 | 117 | 7.0 | 11.0 | 0.00 | 0.00 | 0.00 | 56 | 1012.6 |
| 20260903025004 | 87 | 103 | 7.0 | 12.0 | 0.00 | 0.00 | 0.00 | 56 | 1012.5 |
| 20260903024904 | 87 | 98 | 6.0 | 12.0 | 0.00 | 0.00 | 0.00 | 55 | 1012.5 |
| 20260903024704 | 87 | 95 | 7.0 | 12.0 | 0.00 | 0.00 | 0.00 | 55 | 1012.5 |
| 20260903024604 | 87 | 90 | 7.0 | 12.0 | 0.00 | 0.00 | 0.00 | 55 | 1012.5 |
| 20260903024505 | 87 | 126 | 7.0 | 12.0 | 0.00 | 0.00 | 0.00 | 55 | 1012.6 |
| 20260903024404 | 87 | 103 | 7.0 | 12.0 | 0.00 | 0.00 | 0.00 | 55 | 1012.5 |
| 20260903024304 | 87 | 89 | 6.0 | 12.0 | 0.00 | 0.00 | 0.00 | 55 | 1012.5 |
| 20260903024204 | 87 | 98 | 6.0 | 12.0 | 0.00 | 0.00 | 0.00 | 55 | 1012.5 |
| 20260903024104 | 87 | 101 | 5.0 | 12.0 | 0.00 | 0.00 | 0.00 | 55 | 1012.5 |
| 20260903024004 | 87 | 112 | 7.0 | 12.0 | 0.00 | 0.00 | 0.00 | 55 | 1012.5 |
| 20260903023904 | 87 | 103 | 8.0 | 12.0 | 0.00 | 0.00 | 0.00 | 55 | 1012.5 |
| 20260903023803 | 87 | 101 | 7.0 | 12.0 | 0.00 | 0.00 | 0.00 | 55 | 1012.4 |
| 20260903023704 | 87 | 107 | 6.0 | 10.0 | 0.00 | 0.00 | 0.00 | 55 | 1012.5 |
| 20260903023604 | 87 | 113 | 5.0 | 9.0 | 0.00 | 0.00 | 0.00 | 55 | 1012.5 |
| 20260903023504 | 87 | 141 | 4.0 | 9.0 | 0.00 | 0.00 | 0.00 | 55 | 1012.4 |
| 20260903023404 | 87 | 109 | 5.0 | 9.0 | 0.00 | 0.00 | 0.00 | 55 | 1012.4 |
| 20260903023304 | 87 | 110 | 5.0 | 12.0 | 0.00 | 0.00 | 0.00 | 55 | 1012.4 |
| 20260903023104 | 88 | 122 | 5.0 | 12.0 | 0.00 | 0.00 | 0.00 | 54 | 1012.4 |
| 20260903023015 | 88 | 105 | 4.0 | 12.0 | 0.00 | 0.00 | 0.00 | 54 | 1010.5 |
| 20260903023005 | 88 | 113 | 5.0 | 12.0 | 0.00 | 0.00 | 0.00 | 54 | 1012.4 |
| 20260903022904 | 88 | 105 | 6.0 | 12.0 | 0.00 | 0.00 | 0.00 | 54 | 1012.4 |
| 20260903022804 | 88 | 107 | 6.0 | 12.0 | 0.00 | 0.00 | 0.00 | 54 | 1012.3 |
| 20260903022704 | 88 | 109 | 6.0 | 12.0 | 0.00 | 0.00 | 0.00 | 54 | 1012.3 |
| 20260903022603 | 88 | 111 | 5.0 | 12.0 | 0.00 | 0.00 | 0.00 | 54 | 1012.3 |
| 20260903022505 | 88 | 126 | 6.0 | 12.0 | 0.00 | 0.00 | 0.00 | 54 | 1012.3 |
| 20260903022204 | 88 | 128 | 6.0 | 12.0 | 0.00 | 0.00 | 0.00 | 54 | 1012.2 |
| 20260903022104 | 88 | 108 | 5.0 | 12.0 | 0.00 | 0.00 | 0.00 | 54 | 1012.2 |
| 20260903022004 | 88 | 107 | 5.0 | 12.0 | 0.00 | 0.00 | 0.00 | 54 | 1012.3 |
| 20260903021904 | 88 | 110 | 6.0 | 12.0 | 0.00 | 0.00 | 0.00 | 54 | 1012.2 |
| 20260903021805 | 88 | 101 | 6.0 | 12.0 | 0.00 | 0.00 | 0.00 | 54 | 1012.1 |
| 20260903021704 | 88 | 116 | 5.0 | 12.0 | 0.00 | 0.00 | 0.00 | 54 | 1012.1 |
| 20260903021505 | 88 | 110 | 5.0 | 11.0 | 0.00 | 0.00 | 0.00 | 54 | 1010.3 |
| 20260903021503 | 88 | 110 | 6.0 | 11.0 | 0.00 | 0.00 | 0.00 | 54 | 1012.1 |
| 20260903021403 | 88 | 104 | 7.0 | 11.0 | 0.00 | 0.00 | 0.00 | 54 | 1012.1 |
| 20260903021304 | 88 | 98 | 5.0 | 11.0 | 0.00 | 0.00 | 0.00 | 53 | 1012.1 |
| 20260903021105 | 88 | 117 | 5.0 | 12.0 | 0.00 | 0.00 | 0.00 | 53 | 1012.0 |
| 20260903021004 | 88 | 97 | 6.0 | 12.0 | 0.00 | 0.00 | 0.00 | 53 | 1012.0 |
| 20260903020906 | 88 | 112 | 7.0 | 12.0 | 0.00 | 0.00 | 0.00 | 53 | 1012.0 |
| 20260903020805 | 89 | 111 | 6.0 | 12.0 | 0.00 | 0.00 | 0.00 | 53 | 1011.9 |
| 20260903020704 | 89 | 96 | 6.0 | 12.0 | 0.00 | 0.00 | 0.00 | 53 | 1011.9 |
| 20260903020605 | 89 | 113 | 5.0 | 12.0 | 0.00 | 0.00 | 0.00 | 53 | 1011.9 |
| 20260903020505 | 89 | 108 | 7.0 | 12.0 | 0.00 | 0.00 | 0.00 | 53 | 1011.9 |
| 20260903020304 | 89 | 62 | 7.0 | 12.0 | 0.00 | 0.00 | 0.00 | 53 | 1011.9 |
| 20260903020204 | 89 | 122 | 6.0 | 12.0 | 0.00 | 0.00 | 0.00 | 53 | 1011.8 |
| 20260903020104 | 89 | 112 | 6.0 | 12.0 | 0.00 | 0.00 | 0.00 | 53 | 1011.9 |
| 20260903020003 | 89 | 121 | 7.0 | 12.0 | 0.00 | 0.00 | 0.00 | 53 | 1010.0 |
| 20260903015903 | 89 | 134 | 7.0 | 12.0 | 0.00 | 0.00 | 0.00 | 53 | 1011.8 |
| 20260903015603 | 89 | 115 | 7.0 | 12.0 | 0.00 | 0.00 | 0.00 | 53 | 1011.8 |
| 20260903015504 | 89 | 111 | 6.0 | 12.0 | 0.00 | 0.00 | 0.00 | 53 | 1011.8 |
| 20260903015402 | 89 | 114 | 6.0 | 12.0 | 0.00 | 0.00 | 0.00 | 53 | 1011.8 |
| 20260903015305 | 89 | 122 | 6.0 | 12.0 | 0.00 | 0.00 | 0.00 | 53 | 1011.7 |
| 20260903015203 | 89 | 107 | 7.0 | 13.0 | 0.00 | 0.00 | 0.00 | 53 | 1011.7 |
| 20260903015003 | 89 | 106 | 9.0 | 14.0 | 0.00 | 0.00 | 0.00 | 53 | 1011.7 |
| 20260903014803 | 89 | 107 | 9.0 | 14.0 | 0.00 | 0.00 | 0.00 | 53 | 1011.7 |
| 20260903014704 | 89 | 116 | 9.0 | 14.0 | 0.00 | 0.00 | 0.00 | 53 | 1011.7 |
| 20260903014504 | 89 | 115 | 9.0 | 14.0 | 0.00 | 0.00 | 0.00 | 53 | 1009.8 |
| 20260903014403 | 89 | 115 | 10.0 | 14.0 | 0.00 | 0.00 | 0.00 | 53 | 1011.7 |
| 20260903014303 | 89 | 103 | 8.0 | 14.0 | 0.00 | 0.00 | 0.00 | 53 | 1011.7 |
| 20260903014203 | 89 | 123 | 6.0 | 12.0 | 0.00 | 0.00 | 0.00 | 53 | 1011.6 |
| 20260903014102 | 89 | 105 | 4.0 | 10.0 | 0.00 | 0.00 | 0.00 | 53 | 1011.6 |
| 20260903014003 | 89 | 115 | 5.0 | 10.0 | 0.00 | 0.00 | 0.00 | 53 | 1011.6 |
| 20260903013803 | 89 | 112 | 6.0 | 12.0 | 0.00 | 0.00 | 0.00 | 53 | 1011.5 |
| 20260903013703 | 89 | 109 | 6.0 | 12.0 | 0.00 | 0.00 | 0.00 | 53 | 1011.5 |
| 20260903013603 | 89 | 118 | 6.0 | 12.0 | 0.00 | 0.00 | 0.00 | 53 | 1011.5 |
| 20260903013503 | 89 | 98 | 5.0 | 12.0 | 0.00 | 0.00 | 0.00 | 53 | 1011.5 |
| 20260903013402 | 89 | 101 | 4.0 | 12.0 | 0.00 | 0.00 | 0.00 | 53 | 1011.5 |
| 20260903013303 | 90 | 126 | 4.0 | 12.0 | 0.00 | 0.00 | 0.00 | 53 | 1011.5 |
| 20260903013203 | 90 | 105 | 6.0 | 12.0 | 0.00 | 0.00 | 0.00 | 53 | 1011.5 |
| 20260903013103 | 90 | 94 | 7.0 | 12.0 | 0.00 | 0.00 | 0.00 | 53 | 1011.5 |
| 20260903013004 | 90 | 120 | 5.0 | 12.0 | 0.00 | 0.00 | 0.00 | 53 | 1009.6 |
| 20260903012902 | 90 | 117 | 5.0 | 12.0 | 0.00 | 0.00 | 0.00 | 53 | 1011.5 |
| 20260903012803 | 90 | 109 | 5.0 | 12.0 | 0.00 | 0.00 | 0.00 | 53 | 1011.4 |
| 20260903012702 | 90 | 96 | 6.0 | 12.0 | 0.00 | 0.00 | 0.00 | 53 | 1011.4 |
| 20260903012602 | 90 | 94 | 6.0 | 11.0 | 0.00 | 0.00 | 0.00 | 53 | 1011.4 |
| 20260903012502 | 90 | 98 | 7.0 | 11.0 | 0.00 | 0.00 | 0.00 | 53 | 1011.4 |
| 20260903012402 | 90 | 118 | 8.0 | 11.0 | 0.00 | 0.00 | 0.00 | 53 | 1011.5 |
| 20260903012306 | 90 | 111 | 7.0 | 11.0 | 0.00 | 0.00 | 0.00 | 53 | 1011.5 |
| 20260903012203 | 90 | 94 | 7.0 | 11.0 | 0.00 | 0.00 | 0.00 | 53 | 1011.5 |
| 20260903012103 | 90 | 113 | 6.0 | 10.0 | 0.00 | 0.00 | 0.00 | 53 | 1011.4 |
| 20260903012003 | 90 | 100 | 5.0 | 10.0 | 0.00 | 0.00 | 0.00 | 53 | 1011.4 |
| 20260903011903 | 90 | 109 | 4.0 | 10.0 | 0.00 | 0.00 | 0.00 | 53 | 1011.4 |
| 20260903011802 | 90 | 116 | 5.0 | 11.0 | 0.00 | 0.00 | 0.00 | 53 | 1011.4 |
| 20260903011703 | 90 | 113 | 6.0 | 11.0 | 0.00 | 0.00 | 0.00 | 53 | 1011.4 |
| 20260903011602 | 90 | 132 | 5.0 | 11.0 | 0.00 | 0.00 | 0.00 | 53 | 1011.4 |
| 20260903011503 | 90 | 96 | 4.0 | 11.0 | 0.00 | 0.00 | 0.00 | 53 | 1009.4 |
| 20260903011402 | 90 | 98 | 4.0 | 11.0 | 0.00 | 0.00 | 0.00 | 53 | 1011.4 |
| 20260903011303 | 90 | 110 | 4.0 | 11.0 | 0.00 | 0.00 | 0.00 | 53 | 1011.4 |
| 20260903011204 | 90 | 107 | 5.0 | 11.0 | 0.00 | 0.00 | 0.00 | 52 | 1011.3 |
| 20260903011103 | 90 | 115 | 6.0 | 12.0 | 0.00 | 0.00 | 0.00 | 52 | 1011.3 |
| 20260903011003 | 90 | 108 | 7.0 | 12.0 | 0.00 | 0.00 | 0.00 | 52 | 1011.3 |
| 20260903010802 | 91 | 101 | 4.0 | 12.0 | 0.00 | 0.00 | 0.00 | 52 | 1011.3 |
| 20260903010702 | 91 | 111 | 4.0 | 12.0 | 0.00 | 0.00 | 0.00 | 52 | 1011.3 |
| 20260903010603 | 91 | 101 | 6.0 | 12.0 | 0.00 | 0.00 | 0.00 | 52 | 1011.3 |
| 20260903010303 | 91 | 107 | 7.0 | 12.0 | 0.00 | 0.00 | 0.00 | 51 | 1011.2 |
| 20260903010004 | 91 | 112 | 7.0 | 14.0 | 0.00 | 0.00 | 0.00 | 51 | 1011.2 |
| 20260903005903 | 91 | 120 | 8.0 | 14.0 | 0.00 | 0.00 | 0.00 | 50 | 1011.2 |
| 20260903005803 | 91 | 115 | 7.0 | 14.0 | 0.00 | 0.00 | 0.00 | 50 | 1011.2 |
| 20260903005703 | 92 | 120 | 7.0 | 16.0 | 0.00 | 0.00 | 0.00 | 50 | 1011.2 |
| 20260903005602 | 92 | 107 | 8.0 | 16.0 | 0.00 | 0.00 | 0.00 | 50 | 1011.3 |
| 20260903005502 | 92 | 112 | 9.0 | 16.0 | 0.00 | 0.00 | 0.00 | 50 | 1011.2 |
| 20260903005306 | 92 | 124 | 7.0 | 16.0 | 0.00 | 0.00 | 0.00 | 50 | 1011.2 |
| 20260903005203 | 92 | 118 | 8.0 | 16.0 | 0.00 | 0.00 | 0.00 | 50 | 1011.2 |
| 20260903005004 | 92 | 94 | 10.0 | 16.0 | 0.00 | 0.00 | 0.00 | 49 | 1011.1 |
| 20260903004903 | 93 | 101 | 10.0 | 16.0 | 0.00 | 0.00 | 0.00 | 49 | 1011.1 |
| 20260903004803 | 93 | 101 | 9.0 | 15.0 | 0.00 | 0.00 | 0.00 | 49 | 1011.1 |
| 20260903004704 | 93 | 93 | 9.0 | 15.0 | 0.00 | 0.00 | 0.00 | 48 | 1011.1 |
| 20260903004603 | 93 | 107 | 8.0 | 15.0 | 0.00 | 0.00 | 0.00 | 48 | 1011.1 |
| 20260903004504 | 93 | 95 | 7.0 | 14.0 | 0.00 | 0.00 | 0.00 | 47 | 1011.1 |
| 20260903004403 | 93 | 107 | 5.0 | 13.0 | 0.00 | 0.00 | 0.00 | 47 | 1011.1 |
| 20260903004303 | 93 | 106 | 5.0 | 13.0 | 0.00 | 0.00 | 0.00 | 47 | 1011.1 |
| 20260903004204 | 93 | 109 | 5.0 | 13.0 | 0.00 | 0.00 | 0.00 | 47 | 1011.1 |
| 20260903004102 | 93 | 109 | 4.0 | 13.0 | 0.00 | 0.00 | 0.00 | 47 | 1011.1 |
| 20260903004003 | 94 | 110 | 5.0 | 13.0 | 0.00 | 0.00 | 0.00 | 47 | 1011.1 |
| 20260903003902 | 94 | 87 | 6.0 | 14.0 | 0.00 | 0.00 | 0.00 | 47 | 1011.1 |
| 20260903003803 | 94 | 100 | 8.0 | 14.0 | 0.00 | 0.00 | 0.00 | 46 | 1011.1 |
| 20260903003703 | 94 | 111 | 8.0 | 14.0 | 0.00 | 0.00 | 0.00 | 46 | 1011.1 |
| 20260903003503 | 94 | 79 | 6.0 | 14.0 | 0.00 | 0.00 | 0.00 | 46 | 1011.1 |
| 20260903003403 | 94 | 96 | 7.0 | 14.0 | 0.00 | 0.00 | 0.00 | 46 | 1011.1 |
| 20260903003303 | 94 | 91 | 9.0 | 13.0 | 0.00 | 0.00 | 0.00 | 46 | 1011.0 |
| 20260903003202 | 94 | 99 | 9.0 | 13.0 | 0.00 | 0.00 | 0.00 | 45 | 1011.0 |
| 20260903003102 | 94 | 109 | 9.0 | 13.0 | 0.00 | 0.00 | 0.00 | 45 | 1011.1 |
| 20260903003002 | 95 | 105 | 7.0 | 11.0 | 0.00 | 0.00 | 0.00 | 45 | 1009.1 |
| 20260903002902 | 95 | 102 | 7.0 | 11.0 | 0.00 | 0.00 | 0.00 | 45 | 1011.0 |
| 20260903002802 | 95 | 121 | 6.0 | 11.0 | 0.00 | 0.00 | 0.00 | 45 | 1011.1 |
| 20260903002703 | 95 | 117 | 5.0 | 11.0 | 0.00 | 0.00 | 0.00 | 45 | 1011.0 |
| 20260903002603 | 95 | 101 | 5.0 | 11.0 | 0.00 | 0.00 | 0.00 | 45 | 1011.0 |
| 20260903002402 | 95 | 87 | 4.0 | 11.0 | 0.00 | 0.00 | 0.00 | 44 | 1010.9 |
| 20260903002306 | 95 | 107 | 5.0 | 11.0 | 0.00 | 0.00 | 0.00 | 44 | 1010.9 |
| 20260903002202 | 95 | 86 | 6.0 | 11.0 | 0.00 | 0.00 | 0.00 | 44 | 1010.9 |
| 20260903002102 | 95 | 76 | 7.0 | 12.0 | 0.00 | 0.00 | 0.00 | 44 | 1010.9 |
| 20260903002003 | 95 | 70 | 6.0 | 12.0 | 0.00 | 0.00 | 0.00 | 44 | 1010.9 |
| 20260903001902 | 96 | 68 | 6.0 | 12.0 | 0.00 | 0.00 | 0.00 | 44 | 1010.9 |
| 20260903001803 | 96 | 80 | 5.0 | 16.0 | 0.00 | 0.00 | 0.00 | 44 | 1010.9 |
| 20260903001702 | 96 | 74 | 5.0 | 16.0 | 0.00 | 0.00 | 0.00 | 44 | 1010.9 |
| 20260903001603 | 96 | 88 | 7.0 | 16.0 | 0.00 | 0.00 | 0.00 | 44 | 1010.9 |
| 20260903001504 | 96 | 101 | 6.0 | 16.0 | 0.00 | 0.00 | 0.00 | 44 | 1008.9 |
| 20260903001302 | 96 | 92 | 6.0 | 16.0 | 0.00 | 0.00 | 0.00 | 44 | 1010.9 |
| 20260903001203 | 96 | 88 | 8.0 | 16.0 | 0.00 | 0.00 | 0.00 | 44 | 1010.9 |
| 20260903001003 | 96 | 85 | 8.0 | 16.0 | 0.00 | 0.00 | 0.00 | 43 | 1010.8 |
| 20260903000903 | 96 | 65 | 6.0 | 13.0 | 0.00 | 0.00 | 0.00 | 43 | 1010.8 |
| 20260903000803 | 96 | 90 | 4.0 | 11.0 | 0.00 | 0.00 | 0.00 | 43 | 1010.9 |
| 20260903000703 | 96 | 84 | 6.0 | 11.0 | 0.00 | 0.00 | 0.00 | 43 | 1010.9 |
| 20260903000603 | 96 | 101 | 5.0 | 11.0 | 0.00 | 0.00 | 0.00 | 43 | 1010.9 |
| 20260903000502 | 97 | 113 | 4.0 | 10.0 | 0.00 | 0.00 | 0.00 | 43 | 1010.8 |
| 20260903000403 | 97 | 104 | 3.0 | 8.0 | 0.00 | 0.00 | 0.00 | 43 | 1010.8 |
| 20260903000303 | 97 | 109 | 3.0 | 10.0 | 0.00 | 0.00 | 0.00 | 43 | 1010.8 |
| 20260903000204 | 97 | 105 | 4.0 | 10.0 | 0.00 | 0.00 | 0.00 | 42 | 1010.9 |
| 20260903000003 | 97 | 94 | 3.0 | 11.0 | 0.00 | 0.00 | 0.00 | 42 | 1008.9 |
| 20260902235902 | 97 | 107 | 3.0 | 11.0 | 0.00 | 0.00 | 0.00 | 42 | 1010.8 |
| 20260902235803 | 97 | 130 | 4.0 | 11.0 | 0.00 | 0.00 | 0.00 | 42 | 1010.8 |
| 20260902235703 | 97 | 105 | 3.0 | 11.0 | 0.00 | 0.00 | 0.00 | 41 | 1010.9 |
| 20260902235603 | 97 | 111 | 5.0 | 11.0 | 0.00 | 0.00 | 0.00 | 41 | 1010.8 |
| 20260902235502 | 98 | 95 | 5.0 | 11.0 | 0.00 | 0.00 | 0.00 | 41 | 1010.9 |
| 20260902235305 | 98 | 109 | 6.0 | 11.0 | 0.00 | 0.00 | 0.00 | 41 | 1010.9 |
| 20260902235102 | 98 | 109 | 4.0 | 11.0 | 0.00 | 0.00 | 0.00 | 41 | 1010.9 |
| 20260902235003 | 98 | 121 | 4.0 | 10.0 | 0.00 | 0.00 | 0.00 | 40 | 1010.8 |
| 20260902234903 | 98 | 92 | 5.0 | 11.0 | 0.00 | 0.00 | 0.00 | 40 | 1010.8 |
| 20260902234803 | 98 | 98 | 5.0 | 11.0 | 0.00 | 0.00 | 0.00 | 40 | 1010.8 |
| 20260902234704 | 98 | 96 | 5.0 | 11.0 | 0.00 | 0.00 | 0.00 | 40 | 1010.6 |
| 20260902234504 | 98 | 85 | 4.0 | 11.0 | 0.00 | 0.00 | 0.00 | 40 | 1010.7 |
| 20260902234302 | 98 | 94 | 6.0 | 12.0 | 0.00 | 0.00 | 0.00 | 40 | 1010.7 |
| 20260902234103 | 99 | 105 | 5.0 | 12.0 | 0.00 | 0.00 | 0.00 | 40 | 1010.7 |
| 20260902234003 | 99 | 109 | 5.0 | 12.0 | 0.00 | 0.00 | 0.00 | 39 | 1010.8 |
| 20260902233903 | 99 | 111 | 5.0 | 12.0 | 0.00 | 0.00 | 0.00 | 39 | 1010.7 |
| 20260902233804 | 99 | 102 | 6.0 | 12.0 | 0.00 | 0.00 | 0.00 | 39 | 1010.7 |
| 20260902233704 | 99 | 82 | 6.0 | 12.0 | 0.00 | 0.00 | 0.00 | 39 | 1010.8 |
| 20260902233603 | 99 | 78 | 5.0 | 12.0 | 0.00 | 0.00 | 0.00 | 39 | 1010.8 |
| 20260902233402 | 99 | 86 | 4.0 | 9.0 | 0.00 | 0.00 | 0.00 | 39 | 1010.8 |
| 20260902233303 | 99 | 75 | 4.0 | 9.0 | 0.00 | 0.00 | 0.00 | 39 | 1010.8 |
| 20260902233203 | 99 | 77 | 4.0 | 9.0 | 0.00 | 0.00 | 0.00 | 39 | 1010.8 |
| 20260902233103 | 99 | 91 | 5.0 | 9.0 | 0.00 | 0.00 | 0.00 | 39 | 1010.9 |
| 20260902233003 | 99 | 97 | 4.0 | 9.0 | 0.00 | 0.00 | 0.00 | 39 | 1008.9 |
| 20260902232903 | 99 | 96 | 4.0 | 8.0 | 0.00 | 0.00 | 0.00 | 39 | 1010.9 |
| 20260902232803 | 99 | 108 | 4.0 | 7.0 | 0.00 | 0.00 | 0.00 | 39 | 1010.8 |
| 20260902232702 | 99 | 110 | 3.0 | 9.0 | 0.00 | 0.00 | 0.00 | 39 | 1010.8 |
| 20260902232603 | 99 | 87 | 2.0 | 9.0 | 0.00 | 0.00 | 0.00 | 39 | 1010.8 |
| 20260902232503 | 99 | 101 | 2.0 | 12.0 | 0.00 | 0.00 | 0.00 | 39 | 1010.9 |
| 20260902232403 | 99 | 104 | 2.0 | 12.0 | 0.00 | 0.00 | 0.00 | 39 | 1010.8 |
| 20260902232306 | 99 | 99 | 3.0 | 12.0 | 0.00 | 0.00 | 0.00 | 39 | 1010.9 |
| 20260902232203 | 99 | 94 | 3.0 | 12.0 | 0.00 | 0.00 | 0.00 | 39 | 1010.8 |
| 20260902232102 | 99 | 74 | 3.0 | 12.0 | 0.00 | 0.00 | 0.00 | 39 | 1010.8 |
| 20260902232003 | 99 | 82 | 5.0 | 12.0 | 0.00 | 0.00 | 0.00 | 38 | 1010.8 |
| 20260902231903 | 99 | 69 | 6.0 | 12.0 | 0.00 | 0.00 | 0.00 | 38 | 1010.8 |
| 20260902231802 | 99 | 111 | 7.0 | 12.0 | 0.00 | 0.00 | 0.00 | 38 | 1010.8 |
| 20260902231603 | 99 | 122 | 6.0 | 13.0 | 0.00 | 0.00 | 0.00 | 38 | 1010.8 |
| 20260902231505 | 99 | 107 | 4.0 | 13.0 | 0.00 | 0.00 | 0.00 | 38 | 1008.9 |
| 20260902231402 | 100 | 96 | 5.0 | 14.0 | 0.00 | 0.00 | 0.00 | 38 | 1010.9 |
| 20260902231302 | 100 | 117 | 5.0 | 14.0 | 0.00 | 0.00 | 0.00 | 38 | 1010.8 |
| 20260902231203 | 100 | 68 | 6.0 | 14.0 | 0.00 | 0.00 | 0.00 | 37 | 1010.8 |
| 20260902231103 | 100 | 58 | 6.0 | 14.0 | 0.00 | 0.00 | 0.00 | 37 | 1010.8 |
| 20260902231003 | 100 | 82 | 6.0 | 14.0 | 0.00 | 0.00 | 0.00 | 38 | 1010.9 |
| 20260902230903 | 100 | 87 | 7.0 | 14.0 | 0.00 | 0.00 | 0.00 | 37 | 1010.8 |
| 20260902230803 | 100 | 71 | 7.0 | 16.0 | 0.00 | 0.00 | 0.00 | 37 | 1010.8 |
| 20260902230703 | 100 | 71 | 8.0 | 16.0 | 0.00 | 0.00 | 0.00 | 37 | 1010.8 |
| 20260902230602 | 100 | 82 | 6.0 | 16.0 | 0.00 | 0.00 | 0.00 | 38 | 1010.9 |
| 20260902230503 | 100 | 69 | 6.0 | 16.0 | 0.00 | 0.00 | 0.00 | 38 | 1010.9 |
| 20260902230403 | 100 | 86 | 5.0 | 16.0 | 0.00 | 0.00 | 0.00 | 38 | 1010.9 |
| 20260902230303 | 100 | 89 | 5.0 | 16.0 | 0.00 | 0.00 | 0.00 | 38 | 1010.9 |
| 20260902230203 | 100 | 99 | 7.0 | 16.0 | 0.00 | 0.00 | 0.00 | 38 | 1010.8 |
| 20260902230006 | 100 | 105 | 7.0 | 16.0 | 0.00 | 0.00 | 0.00 | 37 | 1010.8 |
| 20260902225804 | 101 | 132 | 6.0 | 10.0 | 0.00 | 0.00 | 0.00 | 37 | 1010.9 |
| 20260902225703 | 101 | 123 | 4.0 | 10.0 | 0.00 | 0.00 | 0.00 | 38 | 1010.9 |
| 20260902225603 | 101 | 92 | 4.0 | 10.0 | 0.00 | 0.00 | 0.00 | 37 | 1010.9 |
| 20260902225503 | 100 | 71 | 3.0 | 10.0 | 0.00 | 0.00 | 0.00 | 37 | 1010.9 |
| 20260902225404 | 100 | 77 | 5.0 | 10.0 | 0.00 | 0.00 | 0.00 | 37 | 1010.9 |
| 20260902225305 | 100 | 81 | 5.0 | 10.0 | 0.00 | 0.00 | 0.00 | 38 | 1010.9 |
| 20260902225204 | 100 | 74 | 5.0 | 10.0 | 0.00 | 0.00 | 0.00 | 38 | 1010.9 |
| 20260902225104 | 100 | 77 | 3.0 | 10.0 | 0.00 | 0.00 | 0.00 | 38 | 1010.9 |
| 20260902225003 | 100 | 83 | 3.0 | 11.0 | 0.00 | 0.00 | 0.00 | 38 | 1010.9 |
| 20260902224902 | 100 | 113 | 3.0 | 11.0 | 0.00 | 0.00 | 0.00 | 38 | 1010.9 |
| 20260902224802 | 100 | 71 | 3.0 | 12.0 | 0.00 | 0.00 | 0.00 | 38 | 1011.0 |
| 20260902224603 | 100 | 76 | 5.0 | 12.0 | 0.00 | 0.00 | 0.00 | 37 | 1011.0 |
| 20260902224505 | 101 | 109 | 5.0 | 12.0 | 0.00 | 0.00 | 0.00 | 37 | 1009.0 |
| 20260902224503 | 101 | 109 | 5.0 | 12.0 | 0.00 | 0.00 | 0.00 | 37 | 1011.0 |
| 20260902224303 | 101 | 78 | 6.0 | 12.0 | 0.00 | 0.00 | 0.00 | 37 | 1011.0 |
| 20260902224204 | 101 | 111 | 6.0 | 12.0 | 0.00 | 0.00 | 0.00 | 37 | 1011.0 |
| 20260902224102 | 101 | 85 | 7.0 | 12.0 | 0.00 | 0.00 | 0.00 | 37 | 1010.9 |
| 20260902224002 | 101 | 96 | 8.0 | 12.0 | 0.00 | 0.00 | 0.00 | 37 | 1011.0 |
| 20260902223903 | 101 | 87 | 8.0 | 12.0 | 0.00 | 0.00 | 0.00 | 37 | 1010.9 |
| 20260902223803 | 101 | 98 | 6.0 | 12.0 | 0.00 | 0.00 | 0.00 | 37 | 1010.9 |
| 20260902223703 | 101 | 107 | 6.0 | 12.0 | 0.00 | 0.00 | 0.00 | 37 | 1010.9 |
| 20260902223603 | 101 | 96 | 6.0 | 12.0 | 0.00 | 0.00 | 0.00 | 36 | 1010.9 |
| 20260902223502 | 101 | 136 | 3.0 | 11.0 | 0.00 | 0.00 | 0.00 | 36 | 1010.9 |
| 20260902223403 | 101 | 55 | 3.0 | 11.0 | 0.00 | 0.00 | 0.00 | 36 | 1010.9 |
| 20260902223303 | 101 | 99 | 4.0 | 11.0 | 0.00 | 0.00 | 0.00 | 36 | 1010.9 |
| 20260902223203 | 101 | 77 | 5.0 | 11.0 | 0.00 | 0.00 | 0.00 | 37 | 1010.9 |
| 20260902223008 | 101 | 49 | 2.0 | 7.0 | 0.00 | 0.00 | 0.00 | 37 | 1009.0 |
| 20260902223003 | 101 | 49 | 3.0 | 7.0 | 0.00 | 0.00 | 0.00 | 37 | 1010.9 |
| 20260902222803 | 101 | 89 | 4.0 | 7.0 | 0.00 | 0.00 | 0.00 | 37 | 1010.9 |
| 20260902222703 | 101 | 55 | 4.0 | 7.0 | 0.00 | 0.00 | 0.00 | 37 | 1010.9 |
| 20260902222602 | 101 | 80 | 3.0 | 9.0 | 0.00 | 0.00 | 0.00 | 37 | 1010.9 |
| 20260902222503 | 101 | 55 | 3.0 | 9.0 | 0.00 | 0.00 | 0.00 | 37 | 1010.9 |
| 20260902222305 | 101 | 109 | 2.0 | 9.0 | 0.00 | 0.00 | 0.00 | 37 | 1010.9 |
| 20260902222203 | 101 | 76 | 3.0 | 9.0 | 0.00 | 0.00 | 0.00 | 37 | 1010.9 |
| 20260902222103 | 101 | 108 | 3.0 | 9.0 | 0.00 | 0.00 | 0.00 | 37 | 1010.9 |
| 20260902222003 | 101 | 136 | 3.0 | 9.0 | 0.00 | 0.00 | 0.00 | 37 | 1011.0 |
| 20260902221904 | 101 | 89 | 4.0 | 9.0 | 0.00 | 0.00 | 0.00 | 37 | 1010.9 |
| 20260902221703 | 102 | 117 | 4.0 | 9.0 | 0.00 | 0.00 | 0.00 | 36 | 1011.0 |
| 20260902221604 | 102 | 63 | 4.0 | 11.0 | 0.00 | 0.00 | 0.00 | 36 | 1011.0 |
| 20260902221504 | 102 | 54 | 3.0 | 11.0 | 0.00 | 0.00 | 0.00 | 36 | 1009.1 |
| 20260902221402 | 102 | 71 | 2.0 | 11.0 | 0.00 | 0.00 | 0.00 | 37 | 1011.0 |
| 20260902221303 | 102 | 67 | 3.0 | 12.0 | 0.00 | 0.00 | 0.00 | 37 | 1011.0 |
| 20260902221204 | 102 | 96 | 4.0 | 12.0 | 0.00 | 0.00 | 0.00 | 37 | 1011.0 |
| 20260902221103 | 102 | 113 | 5.0 | 12.0 | 0.00 | 0.00 | 0.00 | 37 | 1011.0 |
| 20260902221003 | 102 | 87 | 6.0 | 12.0 | 0.00 | 0.00 | 0.00 | 37 | 1011.0 |
| 20260902220903 | 102 | 87 | 6.0 | 12.0 | 0.00 | 0.00 | 0.00 | 37 | 1011.0 |
| 20260902220803 | 102 | 65 | 5.0 | 12.0 | 0.00 | 0.00 | 0.00 | 37 | 1011.1 |
| 20260902220703 | 102 | 78 | 4.0 | 12.0 | 0.00 | 0.00 | 0.00 | 37 | 1011.1 |
| 20260902220603 | 102 | 86 | 5.0 | 12.0 | 0.00 | 0.00 | 0.00 | 37 | 1011.0 |
| 20260902220504 | 102 | 69 | 6.0 | 12.0 | 0.00 | 0.00 | 0.00 | 37 | 1011.0 |
| 20260902220403 | 102 | 92 | 6.0 | 12.0 | 0.00 | 0.00 | 0.00 | 36 | 1011.0 |
| 20260902220304 | 102 | 68 | 6.0 | 12.0 | 0.00 | 0.00 | 0.00 | 36 | 1011.0 |
| 20260902220204 | 102 | 121 | 3.0 | 10.0 | 0.00 | 0.00 | 0.00 | 37 | 1011.1 |
| 20260902220002 | 102 | 81 | 2.0 | 10.0 | 0.00 | 0.00 | 0.00 | 37 | 1009.1 |
| 20260902215901 | 102 | 102 | 2.0 | 10.0 | 0.00 | 0.00 | 0.00 | 37 | 1011.1 |
| 20260902215703 | 102 | 72 | 3.0 | 10.0 | 0.00 | 0.00 | 0.00 | 37 | 1011.1 |
| 20260902215601 | 102 | 81 | 4.0 | 10.0 | 0.00 | 0.00 | 0.00 | 37 | 1011.1 |
| 20260902215501 | 102 | 78 | 5.0 | 10.0 | 0.00 | 0.00 | 0.00 | 37 | 1011.1 |
| 20260902215401 | 102 | 55 | 4.0 | 9.0 | 0.00 | 0.00 | 0.00 | 36 | 1011.1 |
| 20260902215306 | 102 | 110 | 2.0 | 9.0 | 0.00 | 0.00 | 0.00 | 37 | 1011.1 |
| 20260902215103 | 102 | 153 | 3.0 | 10.0 | 0.00 | 0.00 | 0.00 | 36 | 1011.2 |
| 20260902215002 | 102 | 117 | 5.0 | 10.0 | 0.00 | 0.00 | 0.00 | 36 | 1011.2 |
| 20260902214902 | 102 | 105 | 5.0 | 10.0 | 0.00 | 0.00 | 0.00 | 36 | 1011.2 |
| 20260902214802 | 102 | 97 | 4.0 | 10.0 | 0.00 | 0.00 | 0.00 | 37 | 1011.2 |
| 20260902214703 | 102 | 101 | 4.0 | 10.0 | 0.00 | 0.00 | 0.00 | 36 | 1011.3 |
| 20260902214502 | 102 | 86 | 4.0 | 11.0 | 0.00 | 0.00 | 0.00 | 36 | 1011.2 |
| 20260902214402 | 102 | 80 | 4.0 | 11.0 | 0.00 | 0.00 | 0.00 | 37 | 1011.3 |
| 20260902214303 | 102 | 109 | 3.0 | 12.0 | 0.00 | 0.00 | 0.00 | 37 | 1011.3 |
| 20260902214202 | 102 | 94 | 4.0 | 12.0 | 0.00 | 0.00 | 0.00 | 36 | 1011.3 |
| 20260902214102 | 102 | 97 | 5.0 | 14.0 | 0.00 | 0.00 | 0.00 | 36 | 1011.3 |
| 20260902214002 | 101 | 110 | 6.0 | 14.0 | 0.00 | 0.00 | 0.00 | 37 | 1011.3 |
| 20260902213902 | 101 | 106 | 5.0 | 14.0 | 0.00 | 0.00 | 0.00 | 37 | 1011.3 |
| 20260902213802 | 101 | 92 | 5.0 | 14.0 | 0.00 | 0.00 | 0.00 | 37 | 1011.3 |
| 20260902213703 | 101 | 96 | 4.0 | 14.0 | 0.00 | 0.00 | 0.00 | 37 | 1011.3 |
| 20260902213501 | 101 | 74 | 7.0 | 14.0 | 0.00 | 0.00 | 0.00 | 37 | 1011.4 |
| 20260902213401 | 101 | 105 | 7.0 | 14.0 | 0.00 | 0.00 | 0.00 | 38 | 1011.3 |
| 20260902213302 | 101 | 110 | 6.0 | 12.0 | 0.00 | 0.00 | 0.00 | 38 | 1011.3 |
| 20260902213202 | 101 | 48 | 5.0 | 11.0 | 0.00 | 0.00 | 0.00 | 38 | 1011.4 |
| 20260902213102 | 101 | 57 | 5.0 | 11.0 | 0.00 | 0.00 | 0.00 | 38 | 1011.3 |
| 20260902213003 | 101 | 97 | 5.0 | 11.0 | 0.00 | 0.00 | 0.00 | 38 | 1011.3 |
| 20260902213001 | 101 | 97 | 5.0 | 11.0 | 0.00 | 0.00 | 0.00 | 38 | 1009.4 |
| 20260902212701 | 101 | 143 | 6.0 | 11.0 | 0.00 | 0.00 | 0.00 | 37 | 1011.4 |
| 20260902212603 | 101 | 141 | 7.0 | 11.0 | 0.00 | 0.00 | 0.00 | 37 | 1011.4 |
| 20260902212501 | 101 | 108 | 7.0 | 11.0 | 0.00 | 0.00 | 0.00 | 37 | 1011.5 |
| 20260902212402 | 102 | 138 | 5.0 | 11.0 | 0.00 | 0.00 | 0.00 | 37 | 1011.5 |
| 20260902212305 | 102 | 125 | 5.0 | 11.0 | 0.00 | 0.00 | 0.00 | 37 | 1011.5 |
| 20260902212202 | 102 | 88 | 4.0 | 11.0 | 0.00 | 0.00 | 0.00 | 37 | 1011.5 |
| 20260902212102 | 101 | 95 | 3.0 | 11.0 | 0.00 | 0.00 | 0.00 | 36 | 1011.5 |
| 20260902212001 | 101 | 111 | 3.0 | 11.0 | 0.00 | 0.00 | 0.00 | 36 | 1011.6 |
| 20260902211903 | 101 | 102 | 4.0 | 11.0 | 0.00 | 0.00 | 0.00 | 37 | 1011.6 |
| 20260902211802 | 101 | 119 | 5.0 | 11.0 | 0.00 | 0.00 | 0.00 | 37 | 1011.6 |
| 20260902211703 | 101 | 102 | 4.0 | 11.0 | 0.00 | 0.00 | 0.00 | 38 | 1011.6 |
| 20260902211602 | 101 | 65 | 4.0 | 11.0 | 0.00 | 0.00 | 0.00 | 38 | 1011.6 |
| 20260902211502 | 100 | 101 | 4.0 | 11.0 | 0.00 | 0.00 | 0.00 | 38 | 1009.7 |
| 20260902211402 | 100 | 105 | 4.0 | 11.0 | 0.00 | 0.00 | 0.00 | 38 | 1011.6 |
| 20260902211202 | 100 | 86 | 7.0 | 11.0 | 0.00 | 0.00 | 0.00 | 38 | 1011.6 |
| 20260902211102 | 100 | 75 | 6.0 | 11.0 | 0.00 | 0.00 | 0.00 | 38 | 1011.6 |
| 20260902211003 | 100 | 109 | 4.0 | 10.0 | 0.00 | 0.00 | 0.00 | 38 | 1011.6 |
| 20260902210902 | 100 | 84 | 2.0 | 5.0 | 0.00 | 0.00 | 0.00 | 38 | 1011.7 |
| 20260902210601 | 100 | 65 | 1.0 | 9.0 | 0.00 | 0.00 | 0.00 | 37 | 1011.7 |
| 20260902210503 | 101 | 105 | 1.0 | 9.0 | 0.00 | 0.00 | 0.00 | 37 | 1011.7 |
| 20260902210402 | 101 | 105 | 2.0 | 9.0 | 0.00 | 0.00 | 0.00 | 37 | 1011.7 |
| 20260902210302 | 101 | 106 | 3.0 | 9.0 | 0.00 | 0.00 | 0.00 | 37 | 1011.7 |
| 20260902210202 | 101 | 87 | 3.0 | 9.0 | 0.00 | 0.00 | 0.00 | 37 | 1011.7 |
| 20260902210002 | 101 | 107 | 4.0 | 9.0 | 0.00 | 0.00 | 0.00 | 37 | 1011.7 |
| 20260902205901 | 101 | 66 | 4.0 | 9.0 | 0.00 | 0.00 | 0.00 | 37 | 1011.8 |
| 20260902205802 | 101 | 91 | 4.0 | 9.0 | 0.00 | 0.00 | 0.00 | 38 | 1011.8 |
| 20260902205701 | 101 | 79 | 3.0 | 9.0 | 0.00 | 0.00 | 0.00 | 38 | 1011.8 |
| 20260902205502 | 101 | 30 | 0.0 | 12.0 | 0.00 | 0.00 | 0.00 | 36 | 1011.7 |
| 20260902205402 | 101 | 29 | 1.0 | 12.0 | 0.00 | 0.00 | 0.00 | 37 | 1011.8 |
| 20260902205306 | 101 | 135 | 2.0 | 12.0 | 0.00 | 0.00 | 0.00 | 37 | 1011.8 |
| 20260902205103 | 101 | 101 | 2.0 | 12.0 | 0.00 | 0.00 | 0.00 | 37 | 1011.9 |
| 20260902205003 | 101 | 97 | 3.0 | 12.0 | 0.00 | 0.00 | 0.00 | 38 | 1011.9 |
| 20260902204802 | 101 | 68 | 5.0 | 12.0 | 0.00 | 0.00 | 0.00 | 38 | 1012.0 |
| 20260902204703 | 101 | 98 | 3.0 | 12.0 | 0.00 | 0.00 | 0.00 | 38 | 1012.0 |
| 20260902204602 | 101 | 76 | 2.0 | 12.0 | 0.00 | 0.00 | 0.00 | 40 | 1012.0 |
| 20260902204504 | 100 | 84 | 3.0 | 12.0 | 0.00 | 0.00 | 0.00 | 39 | 1012.0 |
| 20260902204501 | 100 | 84 | 2.0 | 12.0 | 0.00 | 0.00 | 0.00 | 39 | 1010.1 |
| 20260902204402 | 100 | 71 | 4.0 | 12.0 | 0.00 | 0.00 | 0.00 | 39 | 1012.0 |
| 20260902204202 | 100 | 72 | 5.0 | 16.0 | 0.00 | 0.00 | 0.00 | 39 | 1012.0 |
| 20260902203901 | 100 | 101 | 5.0 | 16.0 | 0.00 | 0.00 | 0.00 | 40 | 1012.1 |
| 20260902203702 | 99 | 85 | 6.0 | 16.0 | 0.00 | 0.00 | 0.00 | 41 | 1012.1 |
| 20260902203602 | 99 | 80 | 5.0 | 16.0 | 0.00 | 0.00 | 0.00 | 41 | 1012.1 |
| 20260902203403 | 98 | 76 | 3.0 | 16.0 | 0.00 | 0.00 | 0.00 | 41 | 1012.0 |
| 20260902203302 | 98 | 57 | 1.0 | 5.0 | 0.00 | 0.00 | 0.00 | 41 | 1012.1 |
| 20260902203203 | 98 | 75 | 2.0 | 6.0 | 0.00 | 0.00 | 0.00 | 41 | 1012.0 |
| 20260902203103 | 98 | 89 | 1.0 | 6.0 | 0.00 | 0.00 | 0.00 | 42 | 1012.1 |
| 20260902203003 | 98 | 78 | 0.0 | 6.0 | 0.00 | 0.00 | 0.00 | 42 | 1012.2 |
| 20260902202903 | 98 | 105 | 0.0 | 6.0 | 0.00 | 0.00 | 0.00 | 42 | 1012.2 |
| 20260902202803 | 98 | 105 | 1.0 | 7.0 | 0.00 | 0.00 | 0.00 | 41 | 1012.3 |
| 20260902202702 | 98 | 105 | 2.0 | 7.0 | 0.00 | 0.00 | 0.00 | 41 | 1012.3 |
| 20260902202602 | 98 | 104 | 3.0 | 10.0 | 0.00 | 0.00 | 0.00 | 41 | 1012.3 |
| 20260902202502 | 98 | 68 | 3.0 | 10.0 | 0.00 | 0.00 | 0.00 | 41 | 1012.3 |
| 20260902202402 | 98 | 97 | 3.0 | 15.0 | 0.00 | 0.00 | 0.00 | 41 | 1012.3 |
| 20260902202102 | 99 | 96 | 3.0 | 15.0 | 0.00 | 0.00 | 0.00 | 40 | 1012.4 |
| 20260902202001 | 99 | 80 | 4.0 | 15.0 | 0.00 | 0.00 | 0.00 | 40 | 1012.4 |
| 20260902201903 | 99 | 62 | 5.0 | 15.0 | 0.00 | 0.00 | 0.00 | 39 | 1012.4 |
| 20260902201602 | 100 | 71 | 6.0 | 15.0 | 0.00 | 0.00 | 0.00 | 38 | 1012.4 |
| 20260902201502 | 100 | 59 | 5.0 | 15.0 | 0.00 | 0.00 | 0.00 | 38 | 1010.5 |
| 20260902201402 | 100 | 33 | 4.0 | 15.0 | 0.00 | 0.00 | 0.00 | 39 | 1012.4 |
| 20260902201302 | 100 | 79 | 5.0 | 10.0 | 0.00 | 0.00 | 0.00 | 39 | 1012.4 |
| 20260902201203 | 100 | 70 | 5.0 | 10.0 | 0.00 | 0.00 | 0.00 | 40 | 1012.3 |
| 20260902201104 | 100 | 71 | 3.0 | 10.0 | 0.00 | 0.00 | 0.00 | 39 | 1012.4 |
| 20260902200903 | 100 | 81 | 4.0 | 10.0 | 0.00 | 0.00 | 0.00 | 40 | 1012.4 |
| 20260902200802 | 100 | 54 | 5.0 | 10.0 | 0.00 | 0.00 | 0.00 | 39 | 1012.5 |
| 20260902200701 | 100 | 109 | 5.0 | 10.0 | 0.00 | 0.00 | 0.00 | 39 | 1012.5 |
| 20260902200602 | 100 | 123 | 5.0 | 10.0 | 0.00 | 0.00 | 0.00 | 39 | 1012.5 |
| 20260902200503 | 100 | 113 | 3.0 | 10.0 | 0.00 | 0.00 | 0.00 | 41 | 1012.5 |
| 20260902200403 | 100 | 79 | 3.0 | 10.0 | 0.00 | 0.00 | 0.00 | 41 | 1012.5 |
| 20260902200303 | 100 | 134 | 4.0 | 10.0 | 0.00 | 0.00 | 0.00 | 39 | 1012.5 |
| 20260902200202 | 100 | 138 | 6.0 | 10.0 | 0.00 | 0.00 | 0.00 | 39 | 1012.6 |
| 20260902200004 | 100 | 88 | 4.0 | 10.0 | 0.00 | 0.00 | 0.00 | 39 | 1010.7 |
| 20260902200002 | 100 | 88 | 5.0 | 10.0 | 0.00 | 0.00 | 0.00 | 39 | 1012.6 |
| 20260902195902 | 100 | 92 | 5.0 | 10.0 | 0.00 | 0.00 | 0.00 | 39 | 1012.5 |
| 20260902195803 | 100 | 114 | 6.0 | 10.0 | 0.00 | 0.00 | 0.00 | 40 | 1012.6 |
| 20260902195703 | 100 | 115 | 7.0 | 10.0 | 0.00 | 0.00 | 0.00 | 40 | 1012.6 |
| 20260902195502 | 99 | 118 | 5.0 | 9.0 | 0.00 | 0.00 | 0.00 | 40 | 1012.6 |
| 20260902195403 | 99 | 111 | 3.0 | 10.0 | 0.00 | 0.00 | 0.00 | 40 | 1012.6 |
| 20260902195306 | 99 | 102 | 2.0 | 11.0 | 0.00 | 0.00 | 0.00 | 40 | 1012.6 |
| 20260902195203 | 99 | 76 | 1.0 | 11.0 | 0.00 | 0.00 | 0.00 | 40 | 1012.6 |
| 20260902194903 | 98 | 54 | 2.0 | 11.0 | 0.00 | 0.00 | 0.00 | 42 | 1012.7 |
| 20260902194802 | 98 | 83 | 3.0 | 11.0 | 0.00 | 0.00 | 0.00 | 42 | 1012.7 |
| 20260902194701 | 98 | 107 | 5.0 | 11.0 | 0.00 | 0.00 | 0.00 | 42 | 1012.8 |
| 20260902194601 | 98 | 107 | 6.0 | 11.0 | 0.00 | 0.00 | 0.00 | 42 | 1012.8 |
| 20260902194502 | 98 | 115 | 6.0 | 11.0 | 0.00 | 0.00 | 0.00 | 42 | 1010.9 |
| 20260902194402 | 97 | 101 | 4.0 | 11.0 | 0.00 | 0.00 | 0.00 | 43 | 1012.7 |
| 20260902194301 | 97 | 67 | 3.0 | 11.0 | 0.00 | 0.00 | 0.00 | 43 | 1012.8 |
| 20260902194102 | 97 | 5 | 4.0 | 10.0 | 0.00 | 0.00 | 0.00 | 42 | 1012.8 |
| 20260902194003 | 97 | 355 | 4.0 | 10.0 | 0.00 | 0.00 | 0.00 | 42 | 1012.7 |
| 20260902193902 | 97 | 53 | 4.0 | 10.0 | 0.00 | 0.00 | 0.00 | 42 | 1012.8 |
| 20260902193804 | 97 | 346 | 3.0 | 10.0 | 0.00 | 0.00 | 0.00 | 42 | 1012.8 |
| 20260902193702 | 98 | 23 | 4.0 | 10.0 | 0.00 | 0.00 | 0.00 | 41 | 1012.9 |
| 20260902193602 | 98 | 42 | 4.0 | 10.0 | 0.00 | 0.00 | 0.00 | 41 | 1012.8 |
| 20260902193503 | 98 | 42 | 5.0 | 11.0 | 0.00 | 0.00 | 0.00 | 41 | 1012.8 |
| 20260902193402 | 98 | 55 | 5.0 | 11.0 | 0.00 | 0.00 | 0.00 | 41 | 1012.9 |
| 20260902193302 | 99 | 77 | 6.0 | 11.0 | 0.00 | 0.00 | 0.00 | 40 | 1013.0 |
| 20260902193202 | 99 | 63 | 6.0 | 11.0 | 0.00 | 0.00 | 0.00 | 41 | 1013.0 |
| 20260902193101 | 99 | 92 | 6.0 | 11.0 | 0.00 | 0.00 | 0.00 | 41 | 1013.0 |
| 20260902193003 | 99 | 106 | 6.0 | 11.0 | 0.00 | 0.00 | 0.00 | 40 | 1013.0 |
| 20260902192902 | 99 | 74 | 6.0 | 11.0 | 0.00 | 0.00 | 0.00 | 41 | 1013.0 |
| 20260902192803 | 99 | 79 | 6.0 | 11.0 | 0.00 | 0.00 | 0.00 | 41 | 1012.9 |
| 20260902192702 | 99 | 50 | 6.0 | 11.0 | 0.00 | 0.00 | 0.00 | 40 | 1013.0 |
| 20260902192603 | 99 | 32 | 4.0 | 11.0 | 0.00 | 0.00 | 0.00 | 41 | 1013.0 |
| 20260902192402 | 99 | 95 | 5.0 | 11.0 | 0.00 | 0.00 | 0.00 | 42 | 1013.0 |
| 20260902192306 | 98 | 103 | 6.0 | 11.0 | 0.00 | 0.00 | 0.00 | 42 | 1013.0 |
| 20260902192203 | 98 | 77 | 7.0 | 11.0 | 0.00 | 0.00 | 0.00 | 42 | 1013.0 |
| 20260902192103 | 98 | 34 | 6.0 | 11.0 | 0.00 | 0.00 | 0.00 | 40 | 1013.0 |
| 20260902192004 | 98 | 38 | 4.0 | 11.0 | 0.00 | 0.00 | 0.00 | 42 | 1013.0 |
| 20260902191903 | 98 | 75 | 2.0 | 10.0 | 0.00 | 0.00 | 0.00 | 43 | 1013.1 |
| 20260902191602 | 98 | 98 | 4.0 | 10.0 | 0.00 | 0.00 | 0.00 | 43 | 1013.2 |
| 20260902191502 | 98 | 122 | 2.0 | 10.0 | 0.00 | 0.00 | 0.00 | 43 | 1013.2 |
| 20260902191402 | 98 | 94 | 2.0 | 10.0 | 0.00 | 0.00 | 0.00 | 43 | 1013.2 |
| 20260902191302 | 98 | 41 | 4.0 | 10.0 | 0.00 | 0.00 | 0.00 | 43 | 1013.2 |
| 20260902191101 | 97 | 62 | 4.0 | 10.0 | 0.00 | 0.00 | 0.00 | 44 | 1013.2 |
| 20260902191002 | 97 | 78 | 2.0 | 10.0 | 0.00 | 0.00 | 0.00 | 42 | 1013.2 |
| 20260902190903 | 97 | 60 | 1.0 | 10.0 | 0.00 | 0.00 | 0.00 | 42 | 1013.2 |
| 20260902190802 | 97 | 103 | 1.0 | 10.0 | 0.00 | 0.00 | 0.00 | 42 | 1013.3 |
| 20260902190602 | 98 | 345 | 3.0 | 10.0 | 0.00 | 0.00 | 0.00 | 42 | 1013.4 |
| 20260902190503 | 98 | 11 | 5.0 | 10.0 | 0.00 | 0.00 | 0.00 | 41 | 1013.4 |
| 20260902190403 | 98 | 65 | 5.0 | 10.0 | 0.00 | 0.00 | 0.00 | 42 | 1013.4 |
| 20260902190301 | 99 | 57 | 3.0 | 9.0 | 0.00 | 0.00 | 0.00 | 42 | 1013.4 |
| 20260902190202 | 99 | 76 | 3.0 | 12.0 | 0.00 | 0.00 | 0.00 | 42 | 1013.4 |
| 20260902190003 | 99 | 103 | 2.0 | 12.0 | 0.00 | 0.00 | 0.00 | 42 | 1011.5 |
| 20260902185902 | 99 | 96 | 2.0 | 12.0 | 0.00 | 0.00 | 0.00 | 43 | 1013.4 |
| 20260902185802 | 99 | 59 | 2.0 | 12.0 | 0.00 | 0.00 | 0.00 | 42 | 1013.4 |
| 20260902185502 | 99 | 71 | 4.0 | 12.0 | 0.00 | 0.00 | 0.00 | 42 | 1013.5 |
| 20260902185403 | 98 | 73 | 4.0 | 12.0 | 0.00 | 0.00 | 0.00 | 42 | 1013.5 |
| 20260902185306 | 98 | 84 | 4.0 | 12.0 | 0.00 | 0.00 | 0.00 | 43 | 1013.5 |
| 20260902185002 | 98 | 77 | 6.0 | 13.0 | 0.00 | 0.00 | 0.00 | 43 | 1013.6 |
| 20260902184902 | 98 | 102 | 5.0 | 13.0 | 0.00 | 0.00 | 0.00 | 43 | 1013.6 |
| 20260902184801 | 98 | 101 | 4.0 | 13.0 | 0.00 | 0.00 | 0.00 | 43 | 1013.6 |
| 20260902184702 | 97 | 89 | 6.0 | 13.0 | 0.00 | 0.00 | 0.00 | 44 | 1013.6 |
| 20260902184601 | 97 | 70 | 7.0 | 13.0 | 0.00 | 0.00 | 0.00 | 43 | 1013.6 |
| 20260902184502 | 97 | 73 | 6.0 | 13.0 | 0.00 | 0.00 | 0.00 | 43 | 1011.7 |
| 20260902184402 | 97 | 67 | 6.0 | 13.0 | 0.00 | 0.00 | 0.00 | 44 | 1013.7 |
| 20260902184303 | 97 | 82 | 8.0 | 13.0 | 0.00 | 0.00 | 0.00 | 44 | 1013.8 |
| 20260902184202 | 97 | 130 | 8.0 | 13.0 | 0.00 | 0.00 | 0.00 | 44 | 1013.5 |
| 20260902184101 | 97 | 63 | 5.0 | 11.0 | 0.00 | 0.00 | 0.00 | 44 | 1013.7 |
| 20260902184001 | 97 | 77 | 3.0 | 9.0 | 0.00 | 0.00 | 0.00 | 45 | 1013.7 |
| 20260902183901 | 97 | 49 | 3.0 | 9.0 | 0.00 | 0.00 | 0.00 | 44 | 1013.7 |
| 20260902183802 | 97 | 11 | 2.0 | 9.0 | 0.00 | 0.00 | 0.00 | 44 | 1013.7 |
| 20260902183701 | 97 | 333 | 3.0 | 9.0 | 0.00 | 0.00 | 0.00 | 44 | 1013.8 |
| 20260902183603 | 97 | 26 | 3.0 | 9.0 | 0.00 | 0.00 | 0.00 | 44 | 1013.8 |
| 20260902183403 | 97 | 67 | 3.0 | 11.0 | 0.00 | 0.00 | 0.00 | 44 | 1013.8 |
| 20260902183303 | 96 | 64 | 2.0 | 11.0 | 0.00 | 0.00 | 0.00 | 45 | 1013.8 |
| 20260902183203 | 97 | 61 | 1.0 | 11.0 | 0.00 | 0.00 | 0.00 | 45 | 1013.9 |
| 20260902183101 | 97 | 74 | 3.0 | 11.0 | 0.00 | 0.00 | 0.00 | 45 | 1013.9 |
| 20260902183001 | 97 | 30 | 3.0 | 11.0 | 0.00 | 0.00 | 0.00 | 43 | 1012.0 |
| 20260902182802 | 97 | 53 | 6.0 | 11.0 | 0.00 | 0.00 | 0.00 | 43 | 1013.9 |
| 20260902182603 | 98 | 42 | 5.0 | 11.0 | 0.00 | 0.00 | 0.00 | 43 | 1014.0 |
| 20260902182502 | 98 | 66 | 5.0 | 11.0 | 0.00 | 0.00 | 0.00 | 43 | 1014.1 |
| 20260902182402 | 98 | 57 | 4.0 | 11.0 | 0.00 | 0.00 | 0.00 | 43 | 1014.0 |
| 20260902182305 | 97 | 103 | 4.0 | 11.0 | 0.00 | 0.00 | 0.00 | 44 | 1014.1 |
| 20260902182202 | 97 | 63 | 4.0 | 11.0 | 0.00 | 0.00 | 0.00 | 44 | 1014.1 |
| 20260902182103 | 97 | 117 | 4.0 | 11.0 | 0.00 | 0.00 | 0.00 | 45 | 1014.1 |
| 20260902181901 | 97 | 149 | 2.0 | 10.0 | 0.00 | 0.00 | 0.00 | 44 | 1014.2 |
| 20260902181803 | 97 | 83 | 2.0 | 10.0 | 0.00 | 0.00 | 0.00 | 44 | 1014.2 |
| 20260902181702 | 97 | 53 | 1.0 | 10.0 | 0.00 | 0.00 | 0.00 | 44 | 1014.2 |
| 20260902181603 | 97 | 29 | 1.0 | 10.0 | 0.00 | 0.00 | 0.00 | 44 | 1014.2 |
| 20260902181503 | 97 | 101 | 1.0 | 10.0 | 0.00 | 0.00 | 0.00 | 44 | 1014.3 |
| 20260902181302 | 97 | 74 | 5.0 | 10.0 | 0.00 | 0.00 | 0.00 | 44 | 1014.3 |
| 20260902181203 | 97 | 69 | 5.0 | 10.0 | 0.00 | 0.00 | 0.00 | 44 | 1014.3 |
| 20260902181102 | 97 | 81 | 5.0 | 10.0 | 0.00 | 0.00 | 0.00 | 44 | 1014.3 |
| 20260902181003 | 97 | 46 | 4.0 | 10.0 | 0.00 | 0.00 | 0.00 | 46 | 1014.4 |
| 20260902180903 | 97 | 66 | 4.0 | 10.0 | 0.00 | 0.00 | 0.00 | 46 | 1014.4 |
| 20260902180803 | 96 | 73 | 4.0 | 11.0 | 0.00 | 0.00 | 0.00 | 47 | 1014.4 |
| 20260902180702 | 96 | 52 | 5.0 | 11.0 | 0.00 | 0.00 | 0.00 | 47 | 1014.4 |
| 20260902180602 | 96 | 70 | 4.0 | 11.0 | 0.00 | 0.00 | 0.00 | 47 | 1014.5 |
| 20260902180503 | 96 | 120 | 2.0 | 11.0 | 0.00 | 0.00 | 0.00 | 48 | 1014.4 |
| 20260902180402 | 96 | 91 | 1.0 | 11.0 | 0.00 | 0.00 | 0.00 | 48 | 1014.5 |
| 20260902180302 | 96 | 107 | 1.0 | 11.0 | 0.00 | 0.00 | 0.00 | 48 | 1014.5 |
| 20260902180204 | 96 | 111 | 4.0 | 11.0 | 0.00 | 0.00 | 0.00 | 48 | 1014.5 |
| 20260902180006 | 96 | 132 | 8.0 | 11.0 | 0.00 | 0.00 | 0.00 | 46 | 1014.6 |
| 20260902175902 | 96 | 126 | 5.0 | 11.0 | 0.00 | 0.00 | 0.00 | 46 | 1014.6 |
| 20260902175802 | 96 | 105 | 3.0 | 9.0 | 0.00 | 0.00 | 0.00 | 46 | 1014.6 |
| 20260902175702 | 96 | 128 | 2.0 | 9.0 | 0.00 | 0.00 | 0.00 | 46 | 1014.6 |
| 20260902175601 | 96 | 123 | 4.0 | 9.0 | 0.00 | 0.00 | 0.00 | 46 | 1014.7 |
| 20260902175501 | 96 | 113 | 4.0 | 9.0 | 0.00 | 0.00 | 0.00 | 46 | 1014.7 |
| 20260902175404 | 96 | 134 | 5.0 | 9.0 | 0.00 | 0.00 | 0.00 | 46 | 1014.7 |
| 20260902175307 | 96 | 130 | 4.0 | 9.0 | 0.00 | 0.00 | 0.00 | 46 | 1014.7 |
| 20260902175202 | 96 | 119 | 4.0 | 9.0 | 0.00 | 0.00 | 0.00 | 46 | 1014.7 |
| 20260902175103 | 96 | 111 | 4.0 | 9.0 | 0.00 | 0.00 | 0.00 | 46 | 1014.7 |
| 20260902174902 | 96 | 88 | 1.0 | 6.0 | 0.00 | 0.00 | 0.00 | 46 | 1014.7 |
| 20260902174802 | 96 | 105 | 0.0 | 6.0 | 0.00 | 0.00 | 0.00 | 49 | 1014.7 |
| 20260902174702 | 96 | 82 | 0.0 | 9.0 | 0.00 | 0.00 | 0.00 | 49 | 1014.8 |
| 20260902174602 | 96 | 82 | 0.0 | 11.0 | 0.00 | 0.00 | 0.00 | 47 | 1014.8 |
| 20260902174503 | 96 | 82 | 0.0 | 11.0 | 0.00 | 0.00 | 0.00 | 47 | 1012.9 |
| 20260902174402 | 96 | 82 | 1.0 | 11.0 | 0.00 | 0.00 | 0.00 | 47 | 1014.8 |
| 20260902174303 | 96 | 73 | 2.0 | 11.0 | 0.00 | 0.00 | 0.00 | 47 | 1014.8 |
| 20260902174101 | 95 | 100 | 4.0 | 11.0 | 0.00 | 0.00 | 0.00 | 48 | 1014.9 |
| 20260902174002 | 95 | 121 | 6.0 | 11.0 | 0.00 | 0.00 | 0.00 | 46 | 1014.9 |
| 20260902173903 | 96 | 118 | 6.0 | 11.0 | 0.00 | 0.00 | 0.00 | 46 | 1014.9 |
| 20260902173802 | 96 | 137 | 7.0 | 11.0 | 0.00 | 0.00 | 0.00 | 46 | 1014.9 |
| 20260902173701 | 96 | 110 | 6.0 | 11.0 | 0.00 | 0.00 | 0.00 | 46 | 1014.9 |
| 20260902173603 | 96 | 115 | 4.0 | 11.0 | 0.00 | 0.00 | 0.00 | 48 | 1014.9 |
| 20260902173502 | 95 | 131 | 2.0 | 6.0 | 0.00 | 0.00 | 0.00 | 48 | 1014.9 |
| 20260902173402 | 95 | 92 | 3.0 | 8.0 | 0.00 | 0.00 | 0.00 | 49 | 1015.0 |
| 20260902173301 | 95 | 85 | 3.0 | 8.0 | 0.00 | 0.00 | 0.00 | 48 | 1015.0 |
| 20260902173202 | 95 | 78 | 2.0 | 8.0 | 0.00 | 0.00 | 0.00 | 49 | 1015.0 |
| 20260902173102 | 95 | 66 | 1.0 | 8.0 | 0.00 | 0.00 | 0.00 | 47 | 1015.0 |
| 20260902173001 | 95 | 140 | 0.0 | 9.0 | 0.00 | 0.00 | 0.00 | 46 | 1015.0 |
| 20260902172901 | 95 | 216 | 1.0 | 9.0 | 0.00 | 0.00 | 0.00 | 46 | 1015.1 |
| 20260902172802 | 95 | 67 | 1.0 | 9.0 | 0.00 | 0.00 | 0.00 | 46 | 1015.1 |
| 20260902172702 | 95 | 68 | 3.0 | 9.0 | 0.00 | 0.00 | 0.00 | 46 | 1015.1 |
| 20260902172602 | 95 | 68 | 3.0 | 9.0 | 0.00 | 0.00 | 0.00 | 47 | 1015.2 |
| 20260902172502 | 95 | 96 | 3.0 | 9.0 | 0.00 | 0.00 | 0.00 | 47 | 1015.2 |
| 20260902172402 | 95 | 88 | 4.0 | 11.0 | 0.00 | 0.00 | 0.00 | 48 | 1015.2 |
| 20260902172307 | 95 | 91 | 4.0 | 11.0 | 0.00 | 0.00 | 0.00 | 48 | 1015.2 |
| 20260902172203 | 95 | 108 | 5.0 | 11.0 | 0.00 | 0.00 | 0.00 | 48 | 1015.2 |
| 20260902172102 | 95 | 63 | 3.0 | 11.0 | 0.00 | 0.00 | 0.00 | 48 | 1015.3 |
| 20260902172003 | 95 | 92 | 2.0 | 11.0 | 0.00 | 0.00 | 0.00 | 49 | 1015.3 |
| 20260902171903 | 94 | 98 | 1.0 | 11.0 | 0.00 | 0.00 | 0.00 | 48 | 1015.3 |
| 20260902171702 | 94 | 98 | 4.0 | 9.0 | 0.00 | 0.00 | 0.00 | 49 | 1015.3 |
| 20260902171602 | 94 | 67 | 3.0 | 9.0 | 0.00 | 0.00 | 0.00 | 49 | 1015.3 |
| 20260902171502 | 94 | 55 | 1.0 | 9.0 | 0.00 | 0.00 | 0.00 | 49 | 1013.3 |
| 20260902171402 | 94 | 177 | 3.0 | 11.0 | 0.00 | 0.00 | 0.00 | 47 | 1015.3 |
| 20260902171303 | 94 | 172 | 4.0 | 11.0 | 0.00 | 0.00 | 0.00 | 47 | 1015.3 |
| 20260902171202 | 94 | 144 | 4.0 | 11.0 | 0.00 | 0.00 | 0.00 | 48 | 1015.4 |
| 20260902171102 | 94 | 126 | 5.0 | 11.0 | 0.00 | 0.00 | 0.00 | 49 | 1015.4 |
| 20260902171002 | 94 | 113 | 5.0 | 11.0 | 0.00 | 0.00 | 0.00 | 49 | 1015.3 |
| 20260902170903 | 94 | 116 | 4.0 | 11.0 | 0.00 | 0.00 | 0.00 | 49 | 1015.4 |
| 20260902170802 | 94 | 103 | 5.0 | 11.0 | 0.00 | 0.00 | 0.00 | 49 | 1015.4 |
| 20260902170703 | 94 | 76 | 6.0 | 11.0 | 0.00 | 0.00 | 0.00 | 49 | 1015.5 |
| 20260902170602 | 94 | 111 | 5.0 | 11.0 | 0.00 | 0.00 | 0.00 | 49 | 1015.4 |
| 20260902170502 | 94 | 154 | 4.0 | 8.0 | 0.00 | 0.00 | 0.00 | 48 | 1015.5 |
| 20260902170402 | 94 | 152 | 3.0 | 8.0 | 0.00 | 0.00 | 0.00 | 48 | 1015.5 |
| 20260902170303 | 94 | 206 | 3.0 | 8.0 | 0.00 | 0.00 | 0.00 | 48 | 1015.5 |
| 20260902170202 | 94 | 135 | 4.0 | 8.0 | 0.00 | 0.00 | 0.00 | 48 | 1015.5 |
| 20260902170103 | 94 | 137 | 5.0 | 8.0 | 0.00 | 0.00 | 0.00 | 48 | 1015.5 |
| 20260902170004 | 94 | 110 | 5.0 | 8.0 | 0.00 | 0.00 | 0.00 | 49 | 1015.5 |
| 20260902170002 | 94 | 110 | 4.0 | 8.0 | 0.00 | 0.00 | 0.00 | 49 | 1013.6 |
| 20260902165903 | 94 | 104 | 4.0 | 7.0 | 0.00 | 0.00 | 0.00 | 50 | 1015.5 |
| 20260902165803 | 94 | 27 | 4.0 | 6.0 | 0.00 | 0.00 | 0.00 | 48 | 1015.5 |
| 20260902165703 | 94 | 40 | 4.0 | 6.0 | 0.00 | 0.00 | 0.00 | 48 | 1015.5 |
| 20260902165603 | 94 | 59 | 3.0 | 7.0 | 0.00 | 0.00 | 0.00 | 48 | 1015.6 |
| 20260902165502 | 94 | 67 | 2.0 | 6.0 | 0.00 | 0.00 | 0.00 | 49 | 1015.6 |
| 20260902165402 | 93 | 55 | 2.0 | 8.0 | 0.00 | 0.00 | 0.00 | 49 | 1015.6 |
| 20260902165308 | 93 | 76 | 3.0 | 9.0 | 0.00 | 0.00 | 0.00 | 51 | 1015.6 |
| 20260902165202 | 93 | 73 | 3.0 | 10.0 | 0.00 | 0.00 | 0.00 | 52 | 1015.6 |
| 20260902165101 | 93 | 126 | 3.0 | 10.0 | 0.00 | 0.00 | 0.00 | 52 | 1015.6 |
| 20260902165003 | 93 | 92 | 3.0 | 10.0 | 0.00 | 0.00 | 0.00 | 52 | 1015.6 |
| 20260902164802 | 93 | 73 | 3.0 | 10.0 | 0.00 | 0.00 | 0.00 | 51 | 1015.6 |
| 20260902164702 | 92 | 115 | 4.0 | 10.0 | 0.00 | 0.00 | 0.00 | 51 | 1015.6 |
| 20260902164601 | 92 | 121 | 5.0 | 10.0 | 0.00 | 0.00 | 0.00 | 52 | 1015.6 |
| 20260902164501 | 92 | 105 | 5.0 | 11.0 | 0.00 | 0.00 | 0.00 | 52 | 1015.6 |
| 20260902164402 | 92 | 121 | 4.0 | 11.0 | 0.00 | 0.00 | 0.00 | 51 | 1015.6 |
| 20260902164302 | 92 | 154 | 5.0 | 11.0 | 0.00 | 0.00 | 0.00 | 51 | 1015.6 |
| 20260902164203 | 92 | 204 | 5.0 | 11.0 | 0.00 | 0.00 | 0.00 | 51 | 1015.6 |
| 20260902164101 | 92 | 132 | 5.0 | 11.0 | 0.00 | 0.00 | 0.00 | 51 | 1015.7 |
| 20260902164001 | 93 | 174 | 6.0 | 11.0 | 0.00 | 0.00 | 0.00 | 51 | 1015.8 |
| 20260902163902 | 93 | 111 | 7.0 | 11.0 | 0.00 | 0.00 | 0.00 | 52 | 1015.8 |
| 20260902163803 | 93 | 128 | 6.0 | 11.0 | 0.00 | 0.00 | 0.00 | 52 | 1015.7 |
| 20260902163702 | 93 | 117 | 5.0 | 11.0 | 0.00 | 0.00 | 0.00 | 52 | 1015.7 |
| 20260902163602 | 93 | 123 | 6.0 | 10.0 | 0.00 | 0.00 | 0.00 | 52 | 1015.7 |
| 20260902163502 | 93 | 127 | 6.0 | 10.0 | 0.00 | 0.00 | 0.00 | 52 | 1015.8 |
| 20260902163401 | 93 | 103 | 6.0 | 10.0 | 0.00 | 0.00 | 0.00 | 52 | 1015.8 |
| 20260902163202 | 93 | 171 | 4.0 | 7.0 | 0.00 | 0.00 | 0.00 | 51 | 1015.8 |
| 20260902163006 | 93 | 162 | 2.0 | 8.0 | 0.00 | 0.00 | 0.00 | 51 | 1014.0 |
| 20260902163004 | 93 | 162 | 3.0 | 8.0 | 0.00 | 0.00 | 0.00 | 51 | 1015.9 |
| 20260902162802 | 93 | 103 | 3.0 | 11.0 | 0.00 | 0.00 | 0.00 | 52 | 1015.9 |
| 20260902162702 | 92 | 110 | 3.0 | 11.0 | 0.00 | 0.00 | 0.00 | 53 | 1015.9 |
| 20260902162603 | 92 | 76 | 3.0 | 11.0 | 0.00 | 0.00 | 0.00 | 51 | 1015.9 |
| 20260902162503 | 92 | 61 | 3.0 | 11.0 | 0.00 | 0.00 | 0.00 | 53 | 1015.8 |
| 20260902162403 | 92 | 80 | 4.0 | 11.0 | 0.00 | 0.00 | 0.00 | 53 | 1015.8 |
| 20260902162103 | 92 | 118 | 3.0 | 9.0 | 0.00 | 0.00 | 0.00 | 53 | 1015.9 |
| 20260902161902 | 92 | 154 | 4.0 | 9.0 | 0.00 | 0.00 | 0.00 | 53 | 1016.0 |
| 20260902161802 | 92 | 98 | 5.0 | 9.0 | 0.00 | 0.00 | 0.00 | 53 | 1015.9 |
| 20260902161702 | 92 | 142 | 5.0 | 9.0 | 0.00 | 0.00 | 0.00 | 52 | 1016.0 |
| 20260902161602 | 92 | 114 | 4.0 | 9.0 | 0.00 | 0.00 | 0.00 | 53 | 1016.0 |
| 20260902161506 | 92 | 161 | 2.0 | 9.0 | 0.00 | 0.00 | 0.00 | 53 | 1014.0 |
| 20260902161502 | 92 | 161 | 2.0 | 9.0 | 0.00 | 0.00 | 0.00 | 53 | 1015.9 |
| 20260902161402 | 92 | 170 | 2.0 | 9.0 | 0.00 | 0.00 | 0.00 | 53 | 1015.9 |
| 20260902161303 | 92 | 114 | 2.0 | 9.0 | 0.00 | 0.00 | 0.00 | 54 | 1015.9 |
| 20260902161203 | 92 | 125 | 4.0 | 9.0 | 0.00 | 0.00 | 0.00 | 53 | 1016.0 |
| 20260902161103 | 92 | 138 | 4.0 | 9.0 | 0.00 | 0.00 | 0.00 | 52 | 1016.0 |
| 20260902160802 | 91 | 134 | 2.0 | 9.0 | 0.00 | 0.00 | 0.00 | 55 | 1016.0 |
| 20260902160601 | 91 | 106 | 4.0 | 10.0 | 0.00 | 0.00 | 0.00 | 55 | 1015.9 |
| 20260902160502 | 91 | 109 | 5.0 | 10.0 | 0.00 | 0.00 | 0.00 | 55 | 1016.0 |
| 20260902160402 | 91 | 123 | 4.0 | 10.0 | 0.00 | 0.00 | 0.00 | 53 | 1015.9 |
| 20260902160303 | 91 | 132 | 4.0 | 10.0 | 0.00 | 0.00 | 0.00 | 53 | 1015.9 |
| 20260902160203 | 91 | 154 | 5.0 | 10.0 | 0.00 | 0.00 | 0.00 | 53 | 1015.9 |
| 20260902160103 | 91 | 130 | 6.0 | 10.0 | 0.00 | 0.00 | 0.00 | 53 | 1016.0 |
| 20260902160003 | 91 | 127 | 5.0 | 10.0 | 0.00 | 0.00 | 0.00 | 54 | 1015.9 |
| 20260902155802 | 91 | 138 | 4.0 | 10.0 | 0.00 | 0.00 | 0.00 | 53 | 1016.0 |
| 20260902155602 | 91 | 113 | 5.0 | 10.0 | 0.00 | 0.00 | 0.00 | 55 | 1015.9 |
| 20260902155502 | 91 | 129 | 7.0 | 10.0 | 0.00 | 0.00 | 0.00 | 55 | 1015.9 |
| 20260902155401 | 91 | 148 | 6.0 | 10.0 | 0.00 | 0.00 | 0.00 | 55 | 1015.9 |
| 20260902155301 | 91 | 119 | 4.0 | 10.0 | 0.00 | 0.00 | 0.00 | 55 | 1015.9 |
| 20260902155101 | 90 | 109 | 4.0 | 8.0 | 0.00 | 0.00 | 0.00 | 57 | 1015.9 |
| 20260902154902 | 90 | 103 | 3.0 | 8.0 | 0.00 | 0.00 | 0.00 | 58 | 1015.9 |
| 20260902154802 | 90 | 76 | 3.0 | 8.0 | 0.00 | 0.00 | 0.00 | 58 | 1015.9 |
| 20260902154702 | 89 | 63 | 4.0 | 8.0 | 0.00 | 0.00 | 0.00 | 58 | 1015.9 |
| 20260902154605 | 89 | 102 | 4.0 | 8.0 | 0.00 | 0.00 | 0.00 | 58 | 1014.0 |
| 20260902154602 | 89 | 102 | 4.0 | 8.0 | 0.00 | 0.00 | 0.00 | 58 | 1015.9 |
| 20260902154505 | 89 | 112 | 4.0 | 8.0 | 0.00 | 0.00 | 0.00 | 58 | 1014.0 |
| 20260902154503 | 89 | 112 | 5.0 | 8.0 | 0.00 | 0.00 | 0.00 | 58 | 1015.9 |
| 20260902154402 | 89 | 125 | 5.0 | 8.0 | 0.00 | 0.00 | 0.00 | 58 | 1015.8 |
| 20260902154302 | 89 | 119 | 5.0 | 8.0 | 0.00 | 0.00 | 0.00 | 58 | 1015.8 |
| 20260902154201 | 89 | 135 | 4.0 | 8.0 | 0.00 | 0.00 | 0.00 | 58 | 1015.8 |
| 20260902154100 | 89 | 124 | 3.0 | 8.0 | 0.00 | 0.00 | 0.00 | 58 | 1015.9 |
| 20260902154001 | 89 | 153 | 3.0 | 7.0 | 0.00 | 0.00 | 0.00 | 58 | 1015.9 |
| 20260902153901 | 89 | 163 | 1.0 | 7.0 | 0.00 | 0.00 | 0.00 | 58 | 1015.8 |
| 20260902153701 | 89 | 173 | 3.0 | 7.0 | 0.00 | 0.00 | 0.00 | 59 | 1015.8 |
| 20260902153600 | 89 | 171 | 3.0 | 7.0 | 0.00 | 0.00 | 0.00 | 59 | 1015.9 |
| 20260902153501 | 89 | 173 | 3.0 | 7.0 | 0.00 | 0.00 | 0.00 | 58 | 1015.9 |
| 20260902153303 | 89 | 165 | 4.0 | 7.0 | 0.00 | 0.00 | 0.00 | 59 | 1015.8 |
| 20260902153200 | 89 | 154 | 4.0 | 7.0 | 0.00 | 0.00 | 0.00 | 60 | 1015.9 |
| 20260902153104 | 89 | 134 | 3.0 | 7.0 | 0.00 | 0.00 | 0.00 | 60 | 1013.9 |
| 20260902153101 | 89 | 134 | 4.0 | 7.0 | 0.00 | 0.00 | 0.00 | 60 | 1015.8 |
| 20260902153001 | 88 | 107 | 3.0 | 7.0 | 0.00 | 0.00 | 0.00 | 60 | 1015.8 |
| 20260902152900 | 89 | 126 | 2.0 | 6.0 | 0.00 | 0.00 | 0.00 | 60 | 1015.8 |
| 20260902152800 | 89 | 189 | 2.0 | 6.0 | 0.00 | 0.00 | 0.00 | 60 | 1015.8 |
| 20260902152702 | 89 | 172 | 3.0 | 5.0 | 0.00 | 0.00 | 0.00 | 60 | 1015.8 |
| 20260902152501 | 88 | 155 | 2.0 | 6.0 | 0.00 | 0.00 | 0.00 | 60 | 1015.8 |
| 20260902152401 | 88 | 135 | 1.0 | 5.0 | 0.00 | 0.00 | 0.00 | 60 | 1015.8 |
| 20260902152301 | 88 | 115 | 1.0 | 5.0 | 0.00 | 0.00 | 0.00 | 60 | 1015.8 |
| 20260902152201 | 88 | 116 | 1.0 | 5.0 | 0.00 | 0.00 | 0.00 | 60 | 1015.8 |
| 20260902152101 | 88 | 88 | 2.0 | 5.0 | 0.00 | 0.00 | 0.00 | 61 | 1015.8 |
| 20260902152002 | 88 | 123 | 2.0 | 5.0 | 0.00 | 0.00 | 0.00 | 60 | 1015.8 |
| 20260902151902 | 88 | 150 | 2.0 | 7.0 | 0.00 | 0.00 | 0.00 | 60 | 1015.8 |
| 20260902151801 | 88 | 161 | 2.0 | 7.0 | 0.00 | 0.00 | 0.00 | 61 | 1015.8 |
| 20260902151700 | 88 | 165 | 3.0 | 7.0 | 0.00 | 0.00 | 0.00 | 60 | 1015.8 |
| 20260902151602 | 88 | 171 | 2.0 | 7.0 | 0.00 | 0.00 | 0.00 | 60 | 1013.9 |
| 20260902151501 | 87 | 144 | 2.0 | 7.0 | 0.00 | 0.00 | 0.00 | 61 | 1015.8 |
| 20260902151401 | 87 | 113 | 2.0 | 7.0 | 0.00 | 0.00 | 0.00 | 61 | 1015.8 |
| 20260902151301 | 87 | 111 | 3.0 | 7.0 | 0.00 | 0.00 | 0.00 | 61 | 1015.7 |
| 20260902151203 | 87 | 116 | 2.0 | 8.0 | 0.00 | 0.00 | 0.00 | 61 | 1015.7 |
| 20260902151101 | 87 | 137 | 2.0 | 8.0 | 0.00 | 0.00 | 0.00 | 62 | 1015.7 |
| 20260902151001 | 87 | 151 | 2.0 | 8.0 | 0.00 | 0.00 | 0.00 | 61 | 1015.8 |
| 20260902150902 | 87 | 150 | 3.0 | 8.0 | 0.00 | 0.00 | 0.00 | 62 | 1015.7 |
| 20260902150802 | 87 | 112 | 3.0 | 8.0 | 0.00 | 0.00 | 0.00 | 63 | 1015.7 |
| 20260902150701 | 87 | 102 | 3.0 | 8.0 | 0.00 | 0.00 | 0.00 | 63 | 1015.7 |
| 20260902150501 | 87 | 135 | 5.0 | 8.0 | 0.00 | 0.00 | 0.00 | 63 | 1015.7 |
| 20260902150400 | 87 | 111 | 4.0 | 8.0 | 0.00 | 0.00 | 0.00 | 63 | 1015.6 |
| 20260902150300 | 87 | 140 | 2.0 | 9.0 | 0.00 | 0.00 | 0.00 | 63 | 1015.6 |
| 20260902150101 | 87 | 171 | 3.0 | 7.0 | 0.00 | 0.00 | 0.00 | 63 | 1015.7 |
| 20260902150001 | 87 | 168 | 3.0 | 7.0 | 0.00 | 0.00 | 0.00 | 63 | 1015.6 |
| 20260902145901 | 86 | 158 | 2.0 | 7.0 | 0.00 | 0.00 | 0.00 | 62 | 1015.6 |
| 20260902145801 | 86 | 132 | 2.0 | 7.0 | 0.00 | 0.00 | 0.00 | 63 | 1015.6 |
| 20260902145701 | 86 | 150 | 1.0 | 4.0 | 0.00 | 0.00 | 0.00 | 63 | 1015.6 |
| 20260902145400 | 86 | 130 | 2.0 | 6.0 | 0.00 | 0.00 | 0.00 | 63 | 1015.6 |
| 20260902145201 | 86 | 144 | 3.0 | 6.0 | 0.00 | 0.00 | 0.00 | 62 | 1015.5 |
| 20260902145102 | 86 | 130 | 3.0 | 6.0 | 0.00 | 0.00 | 0.00 | 63 | 1015.5 |
| 20260902145002 | 86 | 167 | 2.0 | 6.0 | 0.00 | 0.00 | 0.00 | 64 | 1015.5 |
| 20260902144900 | 86 | 153 | 2.0 | 6.0 | 0.00 | 0.00 | 0.00 | 64 | 1015.5 |
| 20260902144801 | 85 | 122 | 2.0 | 6.0 | 0.00 | 0.00 | 0.00 | 65 | 1015.5 |
| 20260902144702 | 85 | 123 | 2.0 | 6.0 | 0.00 | 0.00 | 0.00 | 65 | 1015.6 |
| 20260902144602 | 85 | 124 | 3.0 | 6.0 | 0.00 | 0.00 | 0.00 | 65 | 1013.7 |
| 20260902144505 | 85 | 118 | 2.0 | 5.0 | 0.00 | 0.00 | 0.00 | 65 | 1013.7 |
| 20260902144502 | 85 | 118 | 3.0 | 5.0 | 0.00 | 0.00 | 0.00 | 65 | 1015.6 |
| 20260902144401 | 85 | 169 | 2.0 | 5.0 | 0.00 | 0.00 | 0.00 | 65 | 1015.6 |
| 20260902144301 | 85 | 136 | 1.0 | 5.0 | 0.00 | 0.00 | 0.00 | 65 | 1015.7 |
| 20260902144201 | 85 | 190 | 2.0 | 5.0 | 0.00 | 0.00 | 0.00 | 66 | 1015.7 |
| 20260902144100 | 85 | 206 | 2.0 | 5.0 | 0.00 | 0.00 | 0.00 | 66 | 1015.7 |
| 20260902144001 | 85 | 157 | 1.0 | 5.0 | 0.00 | 0.00 | 0.00 | 65 | 1015.7 |
| 20260902143901 | 85 | 157 | 2.0 | 5.0 | 0.00 | 0.00 | 0.00 | 65 | 1015.7 |
| 20260902143701 | 85 | 156 | 4.0 | 5.0 | 0.00 | 0.00 | 0.00 | 66 | 1015.7 |
| 20260902143600 | 84 | 171 | 3.0 | 6.0 | 0.00 | 0.00 | 0.00 | 66 | 1015.7 |
| 20260902143500 | 84 | 130 | 2.0 | 4.0 | 0.00 | 0.00 | 0.00 | 66 | 1015.7 |
| 20260902143400 | 84 | 146 | 1.0 | 4.0 | 0.00 | 0.00 | 0.00 | 66 | 1015.7 |
| 20260902143300 | 84 | 159 | 1.0 | 4.0 | 0.00 | 0.00 | 0.00 | 66 | 1015.8 |
| 20260902143201 | 84 | 158 | 2.0 | 6.0 | 0.00 | 0.00 | 0.00 | 66 | 1015.8 |
| 20260902143102 | 84 | 153 | 3.0 | 6.0 | 0.00 | 0.00 | 0.00 | 66 | 1013.8 |
| 20260902142900 | 84 | 137 | 3.0 | 6.0 | 0.00 | 0.00 | 0.00 | 66 | 1015.7 |
| 20260902142701 | 84 | 147 | 2.0 | 6.0 | 0.00 | 0.00 | 0.00 | 67 | 1015.7 |
| 20260902142601 | 84 | 125 | 3.0 | 6.0 | 0.00 | 0.00 | 0.00 | 67 | 1015.7 |
| 20260902142501 | 84 | 133 | 4.0 | 6.0 | 0.00 | 0.00 | 0.00 | 67 | 1015.8 |
| 20260902142402 | 84 | 126 | 4.0 | 6.0 | 0.00 | 0.00 | 0.00 | 67 | 1015.8 |
| 20260902142301 | 84 | 144 | 3.0 | 6.0 | 0.00 | 0.00 | 0.00 | 67 | 1015.7 |
| 20260902142100 | 84 | 161 | 3.0 | 6.0 | 0.00 | 0.00 | 0.00 | 67 | 1015.8 |
| 20260902141902 | 84 | 169 | 4.0 | 6.0 | 0.00 | 0.00 | 0.00 | 67 | 1015.8 |
| 20260902141802 | 84 | 174 | 4.0 | 5.0 | 0.00 | 0.00 | 0.00 | 67 | 1015.8 |
| 20260902141603 | 84 | 155 | 2.0 | 5.0 | 0.00 | 0.00 | 0.00 | 68 | 1013.9 |
| 20260902141501 | 84 | 163 | 3.0 | 8.0 | 0.00 | 0.00 | 0.00 | 68 | 1015.8 |
| 20260902141400 | 83 | 161 | 3.0 | 8.0 | 0.00 | 0.00 | 0.00 | 68 | 1015.7 |
| 20260902141301 | 83 | 118 | 3.0 | 8.0 | 0.00 | 0.00 | 0.00 | 69 | 1015.8 |
| 20260902141201 | 83 | 133 | 3.0 | 9.0 | 0.00 | 0.00 | 0.00 | 69 | 1015.7 |
| 20260902141002 | 83 | 143 | 3.0 | 10.0 | 0.00 | 0.00 | 0.00 | 70 | 1015.7 |
| 20260902140902 | 83 | 105 | 3.0 | 10.0 | 0.00 | 0.00 | 0.00 | 69 | 1015.8 |
| 20260902140801 | 83 | 109 | 4.0 | 10.0 | 0.00 | 0.00 | 0.00 | 69 | 1015.7 |
| 20260902140701 | 83 | 97 | 4.0 | 10.0 | 0.00 | 0.00 | 0.00 | 69 | 1015.7 |
| 20260902140601 | 83 | 128 | 4.0 | 10.0 | 0.00 | 0.00 | 0.00 | 69 | 1015.7 |
| 20260902140501 | 82 | 129 | 5.0 | 10.0 | 0.00 | 0.00 | 0.00 | 70 | 1015.7 |
| 20260902140401 | 82 | 103 | 6.0 | 10.0 | 0.00 | 0.00 | 0.00 | 69 | 1015.7 |
| 20260902140302 | 82 | 111 | 6.0 | 10.0 | 0.00 | 0.00 | 0.00 | 70 | 1015.7 |
| 20260902140202 | 82 | 126 | 6.0 | 9.0 | 0.00 | 0.00 | 0.00 | 70 | 1015.7 |
| 20260902140001 | 82 | 115 | 5.0 | 9.0 | 0.00 | 0.00 | 0.00 | 70 | 1013.7 |
| 20260902135901 | 82 | 154 | 5.0 | 9.0 | 0.00 | 0.00 | 0.00 | 70 | 1015.6 |
| 20260902135801 | 82 | 134 | 5.0 | 9.0 | 0.00 | 0.00 | 0.00 | 70 | 1015.6 |
| 20260902135701 | 82 | 157 | 5.0 | 9.0 | 0.00 | 0.00 | 0.00 | 70 | 1015.7 |
| 20260902135601 | 82 | 122 | 5.0 | 9.0 | 0.00 | 0.00 | 0.00 | 70 | 1015.6 |
| 20260902135500 | 82 | 122 | 5.0 | 9.0 | 0.00 | 0.00 | 0.00 | 71 | 1015.6 |
| 20260902135400 | 82 | 132 | 5.0 | 10.0 | 0.00 | 0.00 | 0.00 | 71 | 1015.7 |
| 20260902135300 | 82 | 123 | 6.0 | 10.0 | 0.00 | 0.00 | 0.00 | 71 | 1015.7 |
| 20260902135202 | 82 | 100 | 5.0 | 10.0 | 0.00 | 0.00 | 0.00 | 71 | 1015.7 |
| 20260902135101 | 82 | 130 | 5.0 | 10.0 | 0.00 | 0.00 | 0.00 | 71 | 1015.7 |
| 20260902135001 | 81 | 138 | 5.0 | 10.0 | 0.00 | 0.00 | 0.00 | 71 | 1015.7 |
| 20260902134800 | 81 | 137 | 7.0 | 10.0 | 0.00 | 0.00 | 0.00 | 71 | 1015.6 |
| 20260902134700 | 81 | 138 | 7.0 | 10.0 | 0.00 | 0.00 | 0.00 | 71 | 1015.7 |
| 20260902134602 | 81 | 97 | 7.0 | 10.0 | 0.00 | 0.00 | 0.00 | 71 | 1015.6 |
| 20260902134504 | 81 | 130 | 5.0 | 10.0 | 0.00 | 0.00 | 0.00 | 72 | 1013.7 |
| 20260902134502 | 81 | 130 | 6.0 | 10.0 | 0.00 | 0.00 | 0.00 | 72 | 1015.6 |
| 20260902134401 | 81 | 77 | 5.0 | 10.0 | 0.00 | 0.00 | 0.00 | 72 | 1015.6 |
| 20260902134301 | 81 | 116 | 5.0 | 9.0 | 0.00 | 0.00 | 0.00 | 72 | 1015.6 |
| 20260902134200 | 81 | 119 | 4.0 | 9.0 | 0.00 | 0.00 | 0.00 | 72 | 1015.6 |
| 20260902134102 | 81 | 124 | 5.0 | 9.0 | 0.00 | 0.00 | 0.00 | 72 | 1015.6 |
| 20260902134001 | 81 | 134 | 4.0 | 8.0 | 0.00 | 0.00 | 0.00 | 73 | 1015.5 |
| 20260902133901 | 81 | 107 | 3.0 | 7.0 | 0.00 | 0.00 | 0.00 | 73 | 1015.6 |
| 20260902133801 | 80 | 136 | 3.0 | 7.0 | 0.00 | 0.00 | 0.00 | 73 | 1015.6 |
| 20260902133602 | 80 | 134 | 3.0 | 7.0 | 0.00 | 0.00 | 0.00 | 73 | 1015.6 |
| 20260902133501 | 80 | 140 | 3.0 | 7.0 | 0.00 | 0.00 | 0.00 | 73 | 1015.6 |
| 20260902133301 | 80 | 130 | 3.0 | 7.0 | 0.00 | 0.00 | 0.00 | 73 | 1015.6 |
| 20260902133201 | 80 | 149 | 3.0 | 7.0 | 0.00 | 0.00 | 0.00 | 74 | 1015.5 |
| 20260902133106 | 80 | 127 | 3.0 | 7.0 | 0.00 | 0.00 | 0.00 | 74 | 1013.7 |
| 20260902133102 | 80 | 129 | 3.0 | 7.0 | 0.00 | 0.00 | 0.00 | 74 | 1015.5 |
| 20260902133001 | 80 | 133 | 3.0 | 7.0 | 0.00 | 0.00 | 0.00 | 74 | 1015.5 |
| 20260902132901 | 80 | 138 | 3.0 | 7.0 | 0.00 | 0.00 | 0.00 | 74 | 1015.6 |
| 20260902132800 | 80 | 128 | 3.0 | 7.0 | 0.00 | 0.00 | 0.00 | 75 | 1015.6 |
| 20260902132701 | 80 | 144 | 2.0 | 7.0 | 0.00 | 0.00 | 0.00 | 75 | 1015.6 |
| 20260902132401 | 79 | 128 | 3.0 | 7.0 | 0.00 | 0.00 | 0.00 | 76 | 1015.6 |
| 20260902132201 | 79 | 120 | 3.0 | 7.0 | 0.00 | 0.00 | 0.00 | 76 | 1015.6 |
| 20260902132101 | 79 | 127 | 3.0 | 7.0 | 0.00 | 0.00 | 0.00 | 77 | 1015.6 |
| 20260902132001 | 79 | 128 | 2.0 | 7.0 | 0.00 | 0.00 | 0.00 | 77 | 1015.6 |
| 20260902131700 | 78 | 149 | 1.0 | 4.0 | 0.00 | 0.00 | 0.00 | 78 | 1015.5 |
| 20260902131608 | 78 | 123 | 1.0 | 4.0 | 0.00 | 0.00 | 0.00 | 77 | 1013.6 |
| 20260902131601 | 78 | 123 | 2.0 | 4.0 | 0.00 | 0.00 | 0.00 | 77 | 1015.5 |
| 20260902131501 | 78 | 137 | 2.0 | 4.0 | 0.00 | 0.00 | 0.00 | 78 | 1015.5 |
| 20260902131400 | 78 | 130 | 2.0 | 4.0 | 0.00 | 0.00 | 0.00 | 78 | 1015.5 |
| 20260902131201 | 77 | 125 | 3.0 | 4.0 | 0.00 | 0.00 | 0.00 | 79 | 1015.5 |
| 20260902131101 | 77 | 125 | 2.0 | 4.0 | 0.00 | 0.00 | 0.00 | 79 | 1015.5 |
| 20260902131001 | 77 | 119 | 2.0 | 4.0 | 0.00 | 0.00 | 0.00 | 79 | 1015.6 |
| 20260902130901 | 77 | 117 | 2.0 | 4.0 | 0.00 | 0.00 | 0.00 | 79 | 1015.5 |
| 20260902130801 | 77 | 117 | 2.0 | 4.0 | 0.00 | 0.00 | 0.00 | 79 | 1015.5 |
| 20260902130701 | 77 | 122 | 1.0 | 4.0 | 0.00 | 0.00 | 0.00 | 80 | 1015.5 |
| 20260902130602 | 77 | 130 | 1.0 | 3.0 | 0.00 | 0.00 | 0.00 | 80 | 1015.5 |
| 20260902130501 | 76 | 131 | 0.0 | 2.0 | 0.00 | 0.00 | 0.00 | 80 | 1015.5 |
| 20260902130301 | 76 | 134 | 0.0 | 0.0 | 0.00 | 0.00 | 0.00 | 81 | 1015.5 |
| 20260902130201 | 76 | 135 | 0.0 | 0.0 | 0.00 | 0.00 | 0.00 | 81 | 1015.4 |
| 20260902130106 | 76 | 135 | 0.0 | 0.0 | 0.00 | 0.00 | 0.00 | 81 | 1013.6 |
| 20260902130000 | 76 | 135 | 0.0 | 0.0 | 0.00 | 0.00 | 0.00 | 81 | 1013.6 |
| 20260902125900 | 76 | 135 | 0.0 | 0.0 | 0.00 | 0.00 | 0.00 | 81 | 1015.4 |
| 20260902125600 | 76 | 136 | 0.0 | 0.0 | 0.00 | 0.00 | 0.00 | 82 | 1015.4 |
| 20260902125500 | 75 | 135 | 0.0 | 0.0 | 0.00 | 0.00 | 0.00 | 82 | 1015.3 |
| 20260902125400 | 75 | 136 | 0.0 | 0.0 | 0.00 | 0.00 | 0.00 | 82 | 1015.4 |
| 20260902125300 | 75 | 136 | 0.0 | 0.0 | 0.00 | 0.00 | 0.00 | 82 | 1015.3 |
| 20260902125200 | 75 | 136 | 0.0 | 0.0 | 0.00 | 0.00 | 0.00 | 82 | 1015.4 |
| 20260902125059 | 75 | 136 | 0.0 | 0.0 | 0.00 | 0.00 | 0.00 | 82 | 1015.4 |
| 20260902125001 | 75 | 136 | 0.0 | 0.0 | 0.00 | 0.00 | 0.00 | 82 | 1015.4 |
| 20260902124901 | 75 | 136 | 0.0 | 0.0 | 0.00 | 0.00 | 0.00 | 82 | 1015.4 |
| 20260902124801 | 75 | 136 | 0.0 | 0.0 | 0.00 | 0.00 | 0.00 | 82 | 1015.3 |
| 20260902124701 | 75 | 136 | 0.0 | 0.0 | 0.00 | 0.00 | 0.00 | 83 | 1015.3 |
| 20260902124600 | 75 | 136 | 0.0 | 0.0 | 0.00 | 0.00 | 0.00 | 83 | 1013.4 |
| 20260902124500 | 75 | 136 | 0.0 | 0.0 | 0.00 | 0.00 | 0.00 | 83 | 1015.3 |
| 20260902124400 | 75 | 136 | 0.0 | 0.0 | 0.00 | 0.00 | 0.00 | 82 | 1015.3 |
| 20260902124259 | 75 | 136 | 0.0 | 0.0 | 0.00 | 0.00 | 0.00 | 83 | 1015.3 |
| 20260902124159 | 74 | 136 | 0.0 | 0.0 | 0.00 | 0.00 | 0.00 | 83 | 1015.3 |
| 20260902124100 | 74 | 136 | 0.0 | 0.0 | 0.00 | 0.00 | 0.00 | 83 | 1015.3 |
| 20260902124001 | 74 | 136 | 0.0 | 0.0 | 0.00 | 0.00 | 0.00 | 83 | 1015.3 |
| 20260902123800 | 74 | 136 | 0.0 | 0.0 | 0.00 | 0.00 | 0.00 | 83 | 1015.2 |
| 20260902123700 | 74 | 136 | 0.0 | 0.0 | 0.00 | 0.00 | 0.00 | 83 | 1015.1 |
| 20260902123600 | 74 | 136 | 0.0 | 0.0 | 0.00 | 0.00 | 0.00 | 83 | 1015.2 |
| 20260902123500 | 74 | 136 | 0.0 | 0.0 | 0.00 | 0.00 | 0.00 | 83 | 1015.1 |
| 20260902123402 | 74 | 135 | 0.0 | 0.0 | 0.00 | 0.00 | 0.00 | 83 | 1015.1 |
| 20260902123159 | 74 | 136 | 0.0 | 0.0 | 0.00 | 0.00 | 0.00 | 83 | 1015.0 |
| 20260902123105 | 74 | 136 | 0.0 | 0.0 | 0.00 | 0.00 | 0.00 | 83 | 1013.1 |
| 20260902123100 | 74 | 136 | 0.0 | 0.0 | 0.00 | 0.00 | 0.00 | 83 | 1015.0 |
| 20260902123001 | 74 | 136 | 0.0 | 0.0 | 0.00 | 0.00 | 0.00 | 84 | 1015.0 |
| 20260902122859 | 74 | 136 | 0.0 | 0.0 | 0.00 | 0.00 | 0.00 | 84 | 1015.0 |
| 20260902122800 | 74 | 136 | 0.0 | 0.0 | 0.00 | 0.00 | 0.00 | 84 | 1014.9 |
| 20260902122700 | 74 | 136 | 0.0 | 0.0 | 0.00 | 0.00 | 0.00 | 84 | 1014.9 |
| 20260902122600 | 74 | 136 | 0.0 | 0.0 | 0.00 | 0.00 | 0.00 | 84 | 1014.9 |
| 20260902122359 | 74 | 136 | 0.0 | 0.0 | 0.00 | 0.00 | 0.00 | 84 | 1014.9 |
| 20260902122300 | 74 | 136 | 0.0 | 0.0 | 0.00 | 0.00 | 0.00 | 84 | 1014.9 |
| 20260902122200 | 74 | 136 | 0.0 | 0.0 | 0.00 | 0.00 | 0.00 | 84 | 1014.9 |
| 20260902122100 | 74 | 136 | 0.0 | 0.0 | 0.00 | 0.00 | 0.00 | 84 | 1014.9 |
| 20260902122000 | 73 | 136 | 0.0 | 0.0 | 0.00 | 0.00 | 0.00 | 84 | 1015.0 |
| 20260902121903 | 73 | 136 | 0.0 | 0.0 | 0.00 | 0.00 | 0.00 | 84 | 1015.0 |
| 20260902121659 | 73 | 136 | 0.0 | 0.0 | 0.00 | 0.00 | 0.00 | 84 | 1014.9 |
| 20260902121609 | 73 | 136 | 0.0 | 0.0 | 0.00 | 0.00 | 0.00 | 84 | 1013.1 |
| 20260902121559 | 73 | 136 | 0.0 | 0.0 | 0.00 | 0.00 | 0.00 | 84 | 1015.0 |
| 20260902121500 | 73 | 136 | 0.0 | 2.0 | 0.00 | 0.00 | 0.00 | 84 | 1015.0 |
| 20260902121300 | 73 | 136 | 0.0 | 2.0 | 0.00 | 0.00 | 0.00 | 84 | 1015.0 |
| 20260902121059 | 73 | 137 | 0.0 | 2.0 | 0.00 | 0.00 | 0.00 | 84 | 1015.0 |
| 20260902121000 | 73 | 137 | 0.0 | 2.0 | 0.00 | 0.00 | 0.00 | 84 | 1014.9 |
| 20260902120859 | 73 | 137 | 0.0 | 2.0 | 0.00 | 0.00 | 0.00 | 84 | 1015.0 |
| 20260902120800 | 73 | 137 | 0.0 | 2.0 | 0.00 | 0.00 | 0.00 | 84 | 1014.9 |
| 20260902120700 | 73 | 137 | 0.0 | 2.0 | 0.00 | 0.00 | 0.00 | 84 | 1014.9 |
| 20260902120600 | 73 | 137 | 0.0 | 2.0 | 0.00 | 0.00 | 0.00 | 84 | 1014.9 |
| 20260902120200 | 73 | 138 | 0.0 | 2.0 | 0.00 | 0.00 | 0.00 | 84 | 1014.9 |
| 20260902120059 | 73 | 138 | 0.0 | 2.0 | 0.00 | 0.00 | 0.00 | 84 | 1013.1 |
| 20260902120002 | 73 | 138 | 0.0 | 2.0 | 0.00 | 0.00 | 0.00 | 84 | 1014.9 |
| 20260902115900 | 73 | 138 | 0.0 | 1.0 | 0.00 | 0.00 | 0.00 | 84 | 1014.9 |
| 20260902115800 | 73 | 138 | 0.0 | 0.0 | 0.00 | 0.00 | 0.00 | 84 | 1014.9 |
| 20260902115700 | 73 | 138 | 0.0 | 0.0 | 0.00 | 0.00 | 0.00 | 84 | 1014.9 |
| 20260902115601 | 73 | 138 | 0.0 | 0.0 | 0.00 | 0.00 | 0.00 | 84 | 1014.8 |
| 20260902115501 | 73 | 138 | 0.0 | 0.0 | 0.00 | 0.00 | 0.00 | 84 | 1014.8 |
| 20260902115402 | 73 | 138 | 0.0 | 0.0 | 0.00 | 0.00 | 0.00 | 84 | 1014.8 |
| 20260902115203 | 73 | 138 | 0.0 | 0.0 | 0.00 | 0.00 | 0.00 | 84 | 1014.8 |
| 20260902115100 | 73 | 138 | 0.0 | 0.0 | 0.00 | 0.00 | 0.00 | 84 | 1014.8 |
| 20260902115001 | 73 | 138 | 0.0 | 0.0 | 0.00 | 0.00 | 0.00 | 84 | 1014.8 |
| 20260902114902 | 73 | 138 | 0.0 | 0.0 | 0.00 | 0.00 | 0.00 | 84 | 1014.8 |
| 20260902114801 | 73 | 138 | 0.0 | 0.0 | 0.00 | 0.00 | 0.00 | 83 | 1014.8 |
| 20260902114701 | 73 | 138 | 0.0 | 0.0 | 0.00 | 0.00 | 0.00 | 83 | 1014.8 |
| 20260902114601 | 73 | 138 | 0.0 | 0.0 | 0.00 | 0.00 | 0.00 | 83 | 1014.8 |
| 20260902114502 | 73 | 138 | 0.0 | 0.0 | 0.00 | 0.00 | 0.00 | 83 | 1012.9 |
| 20260902114302 | 73 | 138 | 0.0 | 0.0 | 0.00 | 0.00 | 0.00 | 83 | 1014.8 |
| 20260902114200 | 73 | 138 | 0.0 | 0.0 | 0.00 | 0.00 | 0.00 | 83 | 1014.8 |
| 20260902114100 | 73 | 138 | 0.0 | 0.0 | 0.00 | 0.00 | 0.00 | 83 | 1014.8 |
| 20260902114001 | 73 | 138 | 0.0 | 0.0 | 0.00 | 0.00 | 0.00 | 83 | 1014.8 |
| 20260902113902 | 73 | 138 | 0.0 | 0.0 | 0.00 | 0.00 | 0.00 | 83 | 1014.8 |
| 20260902113801 | 73 | 138 | 0.0 | 0.0 | 0.00 | 0.00 | 0.00 | 83 | 1014.8 |
| 20260902113701 | 73 | 138 | 0.0 | 0.0 | 0.00 | 0.00 | 0.00 | 83 | 1014.8 |
| 20260902113600 | 73 | 138 | 0.0 | 0.0 | 0.00 | 0.00 | 0.00 | 83 | 1014.8 |
| 20260902113501 | 73 | 138 | 0.0 | 0.0 | 0.00 | 0.00 | 0.00 | 83 | 1014.8 |
| 20260902113402 | 73 | 138 | 0.0 | 0.0 | 0.00 | 0.00 | 0.00 | 83 | 1014.8 |
| 20260902113301 | 74 | 138 | 0.0 | 0.0 | 0.00 | 0.00 | 0.00 | 83 | 1014.8 |
| 20260902113106 | 74 | 138 | 0.0 | 0.0 | 0.00 | 0.00 | 0.00 | 83 | 1012.9 |
| 20260902113100 | 74 | 138 | 0.0 | 0.0 | 0.00 | 0.00 | 0.00 | 83 | 1014.7 |
| 20260902113000 | 74 | 138 | 0.0 | 0.0 | 0.00 | 0.00 | 0.00 | 83 | 1012.9 |
| 20260902112901 | 74 | 138 | 0.0 | 0.0 | 0.00 | 0.00 | 0.00 | 83 | 1014.8 |
| 20260902112802 | 74 | 138 | 0.0 | 0.0 | 0.00 | 0.00 | 0.00 | 83 | 1014.8 |
| 20260902112701 | 74 | 138 | 0.0 | 0.0 | 0.00 | 0.00 | 0.00 | 83 | 1014.8 |
| 20260902112602 | 74 | 138 | 0.0 | 0.0 | 0.00 | 0.00 | 0.00 | 83 | 1014.8 |
| 20260902112502 | 74 | 138 | 0.0 | 0.0 | 0.00 | 0.00 | 0.00 | 83 | 1014.9 |
| 20260902112401 | 74 | 138 | 0.0 | 0.0 | 0.00 | 0.00 | 0.00 | 83 | 1014.8 |
| 20260902112301 | 74 | 138 | 0.0 | 0.0 | 0.00 | 0.00 | 0.00 | 83 | 1014.9 |
| 20260902112202 | 74 | 138 | 0.0 | 0.0 | 0.00 | 0.00 | 0.00 | 83 | 1014.9 |
| 20260902112101 | 74 | 138 | 0.0 | 0.0 | 0.00 | 0.00 | 0.00 | 83 | 1014.9 |
| 20260902112002 | 74 | 138 | 0.0 | 0.0 | 0.00 | 0.00 | 0.00 | 83 | 1014.9 |
| 20260902111901 | 74 | 138 | 0.0 | 0.0 | 0.00 | 0.00 | 0.00 | 83 | 1014.9 |
| 20260902111801 | 74 | 138 | 0.0 | 0.0 | 0.00 | 0.00 | 0.00 | 83 | 1014.9 |
| 20260902111601 | 74 | 138 | 0.0 | 0.0 | 0.00 | 0.00 | 0.00 | 83 | 1013.1 |
| 20260902111500 | 74 | 138 | 0.0 | 0.0 | 0.00 | 0.00 | 0.00 | 83 | 1014.9 |
| 20260902111400 | 74 | 138 | 0.0 | 0.0 | 0.00 | 0.00 | 0.00 | 83 | 1014.9 |
| 20260902111302 | 74 | 138 | 0.0 | 0.0 | 0.00 | 0.00 | 0.00 | 83 | 1014.9 |
| 20260902111202 | 74 | 138 | 0.0 | 0.0 | 0.00 | 0.00 | 0.00 | 83 | 1014.9 |
| 20260902111101 | 74 | 138 | 0.0 | 0.0 | 0.00 | 0.00 | 0.00 | 83 | 1014.9 |
| 20260902110901 | 74 | 138 | 0.0 | 0.0 | 0.00 | 0.00 | 0.00 | 83 | 1014.9 |
| 20260902110800 | 74 | 138 | 0.0 | 0.0 | 0.00 | 0.00 | 0.00 | 83 | 1014.9 |
| 20260902110700 | 74 | 138 | 0.0 | 0.0 | 0.00 | 0.00 | 0.00 | 83 | 1014.9 |
| 20260902110601 | 74 | 138 | 0.0 | 0.0 | 0.00 | 0.00 | 0.00 | 83 | 1014.9 |
| 20260902110401 | 74 | 138 | 0.0 | 0.0 | 0.00 | 0.00 | 0.00 | 83 | 1014.9 |
| 20260902110302 | 74 | 138 | 0.0 | 0.0 | 0.00 | 0.00 | 0.00 | 83 | 1015.0 |
| 20260902110202 | 74 | 138 | 0.0 | 0.0 | 0.00 | 0.00 | 0.00 | 82 | 1014.9 |
| 20260902110001 | 74 | 138 | 0.0 | 0.0 | 0.00 | 0.00 | 0.00 | 82 | 1013.1 |
| 20260902105901 | 74 | 138 | 0.0 | 0.0 | 0.00 | 0.00 | 0.00 | 82 | 1014.9 |
| 20260902105800 | 74 | 138 | 0.0 | 0.0 | 0.00 | 0.00 | 0.00 | 82 | 1014.9 |
| 20260902105700 | 74 | 138 | 0.0 | 0.0 | 0.00 | 0.00 | 0.00 | 82 | 1014.9 |
| 20260902105600 | 74 | 138 | 0.0 | 0.0 | 0.00 | 0.00 | 0.00 | 82 | 1014.9 |
| 20260902105459 | 74 | 138 | 0.0 | 0.0 | 0.00 | 0.00 | 0.00 | 82 | 1014.9 |
| 20260902105401 | 74 | 138 | 0.0 | 0.0 | 0.00 | 0.00 | 0.00 | 82 | 1014.9 |
| 20260902105300 | 74 | 138 | 0.0 | 0.0 | 0.00 | 0.00 | 0.00 | 82 | 1014.9 |
| 20260902105100 | 74 | 138 | 0.0 | 0.0 | 0.00 | 0.00 | 0.00 | 82 | 1014.9 |
| 20260902105002 | 74 | 138 | 0.0 | 0.0 | 0.00 | 0.00 | 0.00 | 83 | 1014.9 |
| 20260902104859 | 74 | 138 | 0.0 | 0.0 | 0.00 | 0.00 | 0.00 | 83 | 1014.9 |
| 20260902104800 | 74 | 138 | 0.0 | 0.0 | 0.00 | 0.00 | 0.00 | 83 | 1014.9 |
| 20260902104700 | 74 | 138 | 0.0 | 0.0 | 0.00 | 0.00 | 0.00 | 83 | 1014.9 |
| 20260902104611 | 74 | 138 | 0.0 | 0.0 | 0.00 | 0.00 | 0.00 | 83 | 1013.0 |
| 20260902104600 | 74 | 138 | 0.0 | 0.0 | 0.00 | 0.00 | 0.00 | 83 | 1014.9 |
| 20260902104500 | 74 | 138 | 0.0 | 0.0 | 0.00 | 0.00 | 0.00 | 83 | 1014.9 |
| 20260902104400 | 74 | 138 | 0.0 | 0.0 | 0.00 | 0.00 | 0.00 | 83 | 1014.8 |
| 20260902104300 | 74 | 138 | 0.0 | 0.0 | 0.00 | 0.00 | 0.00 | 83 | 1014.9 |
| 20260902104159 | 74 | 138 | 0.0 | 0.0 | 0.00 | 0.00 | 0.00 | 83 | 1014.9 |
| 20260902104100 | 74 | 138 | 0.0 | 0.0 | 0.00 | 0.00 | 0.00 | 83 | 1014.9 |
| 20260902104000 | 74 | 138 | 0.0 | 0.0 | 0.00 | 0.00 | 0.00 | 83 | 1014.9 |
| 20260902103901 | 74 | 138 | 0.0 | 0.0 | 0.00 | 0.00 | 0.00 | 83 | 1014.9 |
| 20260902103800 | 74 | 138 | 0.0 | 0.0 | 0.00 | 0.00 | 0.00 | 83 | 1014.8 |
| 20260902103701 | 74 | 138 | 0.0 | 0.0 | 0.00 | 0.00 | 0.00 | 83 | 1014.8 |
| 20260902103459 | 74 | 138 | 0.0 | 0.0 | 0.00 | 0.00 | 0.00 | 82 | 1014.8 |
| 20260902103359 | 74 | 138 | 0.0 | 0.0 | 0.00 | 0.00 | 0.00 | 82 | 1014.7 |
| 20260902103301 | 74 | 138 | 0.0 | 0.0 | 0.00 | 0.00 | 0.00 | 82 | 1014.8 |
| 20260902103105 | 74 | 138 | 0.0 | 0.0 | 0.00 | 0.00 | 0.00 | 82 | 1013.0 |
| 20260902103100 | 74 | 138 | 0.0 | 0.0 | 0.00 | 0.00 | 0.00 | 82 | 1014.8 |
| 20260902102959 | 74 | 138 | 0.0 | 0.0 | 0.00 | 0.00 | 0.00 | 82 | 1014.8 |
| 20260902102800 | 74 | 138 | 0.0 | 0.0 | 0.00 | 0.00 | 0.00 | 82 | 1014.8 |
| 20260902102702 | 74 | 138 | 0.0 | 0.0 | 0.00 | 0.00 | 0.00 | 82 | 1014.8 |
| 20260902102600 | 74 | 138 | 0.0 | 0.0 | 0.00 | 0.00 | 0.00 | 82 | 1014.8 |
| 20260902102500 | 74 | 138 | 0.0 | 0.0 | 0.00 | 0.00 | 0.00 | 82 | 1014.9 |
| 20260902102401 | 74 | 138 | 0.0 | 0.0 | 0.00 | 0.00 | 0.00 | 82 | 1014.8 |
| 20260902102259 | 74 | 138 | 0.0 | 0.0 | 0.00 | 0.00 | 0.00 | 82 | 1014.8 |
| 20260902102200 | 74 | 138 | 0.0 | 0.0 | 0.00 | 0.00 | 0.00 | 82 | 1014.9 |
| 20260902102100 | 74 | 138 | 0.0 | 0.0 | 0.00 | 0.00 | 0.00 | 82 | 1014.8 |
| 20260902101859 | 75 | 138 | 0.0 | 0.0 | 0.00 | 0.00 | 0.00 | 82 | 1014.8 |
| 20260902101800 | 75 | 138 | 0.0 | 0.0 | 0.00 | 0.00 | 0.00 | 82 | 1014.8 |
| 20260902101659 | 75 | 138 | 0.0 | 0.0 | 0.00 | 0.00 | 0.00 | 82 | 1014.9 |
| 20260902101601 | 75 | 138 | 0.0 | 0.0 | 0.00 | 0.00 | 0.00 | 82 | 1013.0 |
| 20260902101559 | 75 | 138 | 0.0 | 0.0 | 0.00 | 0.00 | 0.00 | 82 | 1014.8 |
| 20260902101359 | 75 | 138 | 0.0 | 0.0 | 0.00 | 0.00 | 0.00 | 82 | 1014.8 |
| 20260902101300 | 75 | 138 | 0.0 | 0.0 | 0.00 | 0.00 | 0.00 | 82 | 1014.8 |
| 20260902101101 | 75 | 138 | 0.0 | 0.0 | 0.00 | 0.00 | 0.00 | 81 | 1014.9 |
| 20260902101001 | 75 | 138 | 0.0 | 0.0 | 0.00 | 0.00 | 0.00 | 81 | 1014.8 |
| 20260902100900 | 75 | 138 | 0.0 | 0.0 | 0.00 | 0.00 | 0.00 | 81 | 1014.9 |
| 20260902100800 | 75 | 138 | 0.0 | 0.0 | 0.00 | 0.00 | 0.00 | 80 | 1014.8 |
| 20260902100600 | 75 | 138 | 0.0 | 0.0 | 0.00 | 0.00 | 0.00 | 80 | 1014.8 |
| 20260902100501 | 75 | 138 | 0.0 | 0.0 | 0.00 | 0.00 | 0.00 | 80 | 1014.8 |
| 20260902100400 | 75 | 138 | 0.0 | 0.0 | 0.00 | 0.00 | 0.00 | 80 | 1014.8 |
| 20260902100301 | 75 | 138 | 0.0 | 0.0 | 0.00 | 0.00 | 0.00 | 80 | 1014.8 |
| 20260902100201 | 75 | 138 | 0.0 | 0.0 | 0.00 | 0.00 | 0.00 | 80 | 1014.8 |
| 20260902100100 | 75 | 138 | 0.0 | 0.0 | 0.00 | 0.00 | 0.00 | 80 | 1014.8 |
| 20260902095959 | 75 | 138 | 0.0 | 0.0 | 0.00 | 0.00 | 0.00 | 80 | 1014.9 |
| 20260902095859 | 75 | 138 | 0.0 | 0.0 | 0.00 | 0.00 | 0.00 | 80 | 1014.8 |
| 20260902095759 | 75 | 138 | 0.0 | 0.0 | 0.00 | 0.00 | 0.00 | 80 | 1014.8 |
| 20260902095700 | 75 | 138 | 0.0 | 0.0 | 0.00 | 0.00 | 0.00 | 80 | 1014.8 |
| 20260902095559 | 76 | 138 | 0.0 | 0.0 | 0.00 | 0.00 | 0.00 | 80 | 1014.7 |
| 20260902095459 | 76 | 138 | 0.0 | 0.0 | 0.00 | 0.00 | 0.00 | 80 | 1014.7 |
| 20260902095359 | 76 | 138 | 0.0 | 0.0 | 0.00 | 0.00 | 0.00 | 80 | 1014.8 |
| 20260902095259 | 76 | 138 | 0.0 | 0.0 | 0.00 | 0.00 | 0.00 | 80 | 1014.7 |
| 20260902095159 | 76 | 138 | 0.0 | 0.0 | 0.00 | 0.00 | 0.00 | 80 | 1014.7 |
| 20260902095058 | 76 | 138 | 0.0 | 0.0 | 0.00 | 0.00 | 0.00 | 80 | 1014.7 |
| 20260902094958 | 76 | 138 | 0.0 | 0.0 | 0.00 | 0.00 | 0.00 | 80 | 1014.7 |
| 20260902094859 | 76 | 138 | 0.0 | 0.0 | 0.00 | 0.00 | 0.00 | 80 | 1014.7 |
| 20260902094800 | 76 | 138 | 0.0 | 0.0 | 0.00 | 0.00 | 0.00 | 79 | 1014.7 |
| 20260902094700 | 76 | 138 | 0.0 | 0.0 | 0.00 | 0.00 | 0.00 | 79 | 1014.7 |
| 20260902094600 | 76 | 138 | 0.0 | 0.0 | 0.00 | 0.00 | 0.00 | 79 | 1012.8 |
| 20260902094559 | 76 | 138 | 0.0 | 0.0 | 0.00 | 0.00 | 0.00 | 79 | 1014.7 |
| 20260902094459 | 76 | 138 | 0.0 | 0.0 | 0.00 | 0.00 | 0.00 | 79 | 1014.7 |
| 20260902094359 | 76 | 138 | 0.0 | 0.0 | 0.00 | 0.00 | 0.00 | 79 | 1014.7 |
| 20260902094259 | 76 | 138 | 0.0 | 0.0 | 0.00 | 0.00 | 0.00 | 79 | 1014.7 |
| 20260902094159 | 76 | 138 | 0.0 | 0.0 | 0.00 | 0.00 | 0.00 | 78 | 1014.7 |
| 20260902094058 | 76 | 138 | 0.0 | 0.0 | 0.00 | 0.00 | 0.00 | 78 | 1014.7 |
| 20260902093959 | 76 | 138 | 0.0 | 0.0 | 0.00 | 0.00 | 0.00 | 78 | 1014.7 |
| 20260902093759 | 76 | 138 | 0.0 | 0.0 | 0.00 | 0.00 | 0.00 | 78 | 1014.7 |
| 20260902093659 | 76 | 138 | 0.0 | 0.0 | 0.00 | 0.00 | 0.00 | 78 | 1014.7 |
| 20260902093559 | 76 | 138 | 0.0 | 0.0 | 0.00 | 0.00 | 0.00 | 78 | 1014.7 |
| 20260902093500 | 76 | 138 | 0.0 | 0.0 | 0.00 | 0.00 | 0.00 | 78 | 1014.7 |
| 20260902093359 | 76 | 138 | 0.0 | 0.0 | 0.00 | 0.00 | 0.00 | 78 | 1014.7 |
| 20260902093300 | 77 | 138 | 0.0 | 0.0 | 0.00 | 0.00 | 0.00 | 78 | 1014.7 |
| 20260902093200 | 77 | 138 | 0.0 | 0.0 | 0.00 | 0.00 | 0.00 | 78 | 1014.7 |
| 20260902093100 | 77 | 138 | 0.0 | 0.0 | 0.00 | 0.00 | 0.00 | 78 | 1012.8 |
| 20260902092959 | 77 | 138 | 0.0 | 0.0 | 0.00 | 0.00 | 0.00 | 78 | 1014.7 |
| 20260902092858 | 77 | 138 | 0.0 | 0.0 | 0.00 | 0.00 | 0.00 | 78 | 1014.7 |
| 20260902092758 | 77 | 138 | 0.0 | 0.0 | 0.00 | 0.00 | 0.00 | 78 | 1014.7 |
| 20260902092659 | 77 | 138 | 0.0 | 0.0 | 0.00 | 0.00 | 0.00 | 78 | 1014.7 |
| 20260902092558 | 77 | 138 | 0.0 | 0.0 | 0.00 | 0.00 | 0.00 | 78 | 1014.7 |
| 20260902092458 | 77 | 138 | 0.0 | 0.0 | 0.00 | 0.00 | 0.00 | 78 | 1014.7 |
| 20260902092359 | 77 | 138 | 0.0 | 0.0 | 0.00 | 0.00 | 0.00 | 78 | 1014.7 |
| 20260902091959 | 77 | 138 | 0.0 | 0.0 | 0.00 | 0.00 | 0.00 | 78 | 1014.7 |
| 20260902091859 | 77 | 138 | 0.0 | 0.0 | 0.00 | 0.00 | 0.00 | 77 | 1014.7 |
| 20260902091758 | 77 | 138 | 0.0 | 0.0 | 0.00 | 0.00 | 0.00 | 77 | 1014.7 |
| 20260902091606 | 77 | 138 | 0.0 | 0.0 | 0.00 | 0.00 | 0.00 | 77 | 1012.9 |
| 20260902091458 | 77 | 138 | 0.0 | 0.0 | 0.00 | 0.00 | 0.00 | 77 | 1014.7 |
| 20260902091358 | 77 | 138 | 0.0 | 0.0 | 0.00 | 0.00 | 0.00 | 76 | 1014.7 |
| 20260902091058 | 77 | 138 | 0.0 | 0.0 | 0.00 | 0.00 | 0.00 | 76 | 1014.8 |
| 20260902091001 | 77 | 138 | 0.0 | 0.0 | 0.00 | 0.00 | 0.00 | 77 | 1014.8 |
| 20260902090859 | 77 | 138 | 0.0 | 0.0 | 0.00 | 0.00 | 0.00 | 77 | 1014.7 |
| 20260902090759 | 77 | 138 | 0.0 | 0.0 | 0.00 | 0.00 | 0.00 | 77 | 1014.8 |
| 20260902090659 | 77 | 138 | 0.0 | 0.0 | 0.00 | 0.00 | 0.00 | 77 | 1014.8 |
| 20260902090600 | 77 | 138 | 0.0 | 0.0 | 0.00 | 0.00 | 0.00 | 77 | 1014.8 |
| 20260902090400 | 77 | 138 | 0.0 | 0.0 | 0.00 | 0.00 | 0.00 | 77 | 1014.8 |
| 20260902090259 | 77 | 138 | 0.0 | 0.0 | 0.00 | 0.00 | 0.00 | 77 | 1014.8 |
| 20260902090201 | 77 | 138 | 0.0 | 0.0 | 0.00 | 0.00 | 0.00 | 77 | 1014.7 |
| 20260902090105 | 77 | 138 | 0.0 | 0.0 | 0.00 | 0.00 | 0.00 | 76 | 1012.9 |
| 20260902090100 | 77 | 138 | 0.0 | 0.0 | 0.00 | 0.00 | 0.00 | 76 | 1014.7 |
| 20260902085959 | 78 | 138 | 0.0 | 0.0 | 0.00 | 0.00 | 0.00 | 76 | 1014.7 |
| 20260902085859 | 78 | 138 | 0.0 | 0.0 | 0.00 | 0.00 | 0.00 | 76 | 1014.7 |
| 20260902085759 | 78 | 138 | 0.0 | 0.0 | 0.00 | 0.00 | 0.00 | 76 | 1014.7 |
| 20260902085659 | 78 | 138 | 0.0 | 0.0 | 0.00 | 0.00 | 0.00 | 76 | 1014.7 |
| 20260902085558 | 78 | 138 | 0.0 | 0.0 | 0.00 | 0.00 | 0.00 | 76 | 1014.7 |
| 20260902085500 | 78 | 138 | 0.0 | 0.0 | 0.00 | 0.00 | 0.00 | 76 | 1014.7 |
| 20260902085359 | 78 | 138 | 0.0 | 0.0 | 0.00 | 0.00 | 0.00 | 76 | 1014.7 |
| 20260902085259 | 78 | 138 | 0.0 | 0.0 | 0.00 | 0.00 | 0.00 | 76 | 1014.7 |
| 20260902085200 | 78 | 138 | 0.0 | 0.0 | 0.00 | 0.00 | 0.00 | 76 | 1014.7 |
| 20260902085100 | 78 | 138 | 0.0 | 0.0 | 0.00 | 0.00 | 0.00 | 76 | 1014.7 |
| 20260902085001 | 78 | 138 | 0.0 | 0.0 | 0.00 | 0.00 | 0.00 | 75 | 1014.7 |
| 20260902084900 | 78 | 138 | 0.0 | 0.0 | 0.00 | 0.00 | 0.00 | 75 | 1014.7 |
| 20260902084800 | 78 | 138 | 0.0 | 0.0 | 0.00 | 0.00 | 0.00 | 75 | 1014.7 |
| 20260902084659 | 78 | 138 | 0.0 | 0.0 | 0.00 | 0.00 | 0.00 | 75 | 1014.7 |
| 20260902084606 | 78 | 138 | 0.0 | 0.0 | 0.00 | 0.00 | 0.00 | 75 | 1012.9 |
| 20260902084559 | 78 | 138 | 0.0 | 0.0 | 0.00 | 0.00 | 0.00 | 75 | 1014.7 |
| 20260902084458 | 78 | 138 | 0.0 | 0.0 | 0.00 | 0.00 | 0.00 | 75 | 1014.7 |
| 20260902084259 | 78 | 138 | 0.0 | 0.0 | 0.00 | 0.00 | 0.00 | 75 | 1014.7 |
| 20260902084059 | 79 | 138 | 0.0 | 0.0 | 0.00 | 0.00 | 0.00 | 74 | 1014.7 |
| 20260902083901 | 79 | 138 | 0.0 | 0.0 | 0.00 | 0.00 | 0.00 | 74 | 1014.8 |
| 20260902083800 | 79 | 138 | 0.0 | 0.0 | 0.00 | 0.00 | 0.00 | 74 | 1014.7 |
| 20260902083658 | 79 | 138 | 0.0 | 0.0 | 0.00 | 0.00 | 0.00 | 74 | 1014.8 |
| 20260902083559 | 79 | 138 | 0.0 | 0.0 | 0.00 | 0.00 | 0.00 | 74 | 1014.8 |
| 20260902083500 | 79 | 138 | 0.0 | 0.0 | 0.00 | 0.00 | 0.00 | 74 | 1014.8 |
| 20260902083401 | 79 | 138 | 0.0 | 0.0 | 0.00 | 0.00 | 0.00 | 74 | 1014.8 |
| 20260902083259 | 79 | 138 | 0.0 | 0.0 | 0.00 | 0.00 | 0.00 | 74 | 1014.8 |
| 20260902083200 | 79 | 138 | 0.0 | 0.0 | 0.00 | 0.00 | 0.00 | 74 | 1014.8 |
| 20260902083114 | 79 | 138 | 0.0 | 0.0 | 0.00 | 0.00 | 0.00 | 73 | 1012.9 |
| 20260902082959 | 79 | 138 | 0.0 | 0.0 | 0.00 | 0.00 | 0.00 | 73 | 1014.8 |
| 20260902082900 | 79 | 138 | 0.0 | 0.0 | 0.00 | 0.00 | 0.00 | 73 | 1014.8 |
| 20260902082659 | 79 | 138 | 0.0 | 0.0 | 0.00 | 0.00 | 0.00 | 73 | 1014.8 |
| 20260902082459 | 79 | 138 | 0.0 | 0.0 | 0.00 | 0.00 | 0.00 | 73 | 1014.9 |
| 20260902082400 | 79 | 138 | 0.0 | 0.0 | 0.00 | 0.00 | 0.00 | 73 | 1014.8 |
| 20260902082258 | 79 | 138 | 0.0 | 0.0 | 0.00 | 0.00 | 0.00 | 73 | 1014.9 |
| 20260902082158 | 79 | 138 | 0.0 | 0.0 | 0.00 | 0.00 | 0.00 | 73 | 1014.8 |
| 20260902082059 | 79 | 138 | 0.0 | 0.0 | 0.00 | 0.00 | 0.00 | 73 | 1014.9 |
| 20260902082000 | 80 | 138 | 0.0 | 0.0 | 0.00 | 0.00 | 0.00 | 73 | 1014.8 |
| 20260902081859 | 80 | 138 | 0.0 | 0.0 | 0.00 | 0.00 | 0.00 | 73 | 1014.8 |
| 20260902081659 | 80 | 138 | 0.0 | 0.0 | 0.00 | 0.00 | 0.00 | 73 | 1014.8 |
| 20260902081559 | 80 | 138 | 0.0 | 0.0 | 0.00 | 0.00 | 0.00 | 73 | 1014.8 |
| 20260902081401 | 80 | 138 | 0.0 | 0.0 | 0.00 | 0.00 | 0.00 | 72 | 1014.8 |
| 20260902081258 | 80 | 138 | 0.0 | 0.0 | 0.00 | 0.00 | 0.00 | 72 | 1014.8 |
| 20260902081200 | 80 | 138 | 0.0 | 0.0 | 0.00 | 0.00 | 0.00 | 72 | 1014.8 |
| 20260902081058 | 80 | 138 | 0.0 | 0.0 | 0.00 | 0.00 | 0.00 | 72 | 1014.8 |
| 20260902081000 | 80 | 138 | 0.0 | 0.0 | 0.00 | 0.00 | 0.00 | 72 | 1014.8 |
| 20260902080858 | 80 | 138 | 0.0 | 0.0 | 0.00 | 0.00 | 0.00 | 72 | 1014.8 |
| 20260902080758 | 80 | 138 | 0.0 | 0.0 | 0.00 | 0.00 | 0.00 | 72 | 1014.8 |
| 20260902080559 | 80 | 138 | 0.0 | 0.0 | 0.00 | 0.00 | 0.00 | 72 | 1014.8 |
| 20260902080458 | 80 | 138 | 0.0 | 0.0 | 0.00 | 0.00 | 0.00 | 72 | 1014.8 |
| 20260902080358 | 80 | 138 | 0.0 | 0.0 | 0.00 | 0.00 | 0.00 | 72 | 1014.8 |
| 20260902080259 | 80 | 138 | 0.0 | 0.0 | 0.00 | 0.00 | 0.00 | 72 | 1014.8 |
| 20260902080100 | 80 | 138 | 0.0 | 0.0 | 0.00 | 0.00 | 0.00 | 72 | 1013.0 |
| 20260902075959 | 80 | 138 | 0.0 | 0.0 | 0.00 | 0.00 | 0.00 | 71 | 1014.8 |
| 20260902075858 | 80 | 138 | 0.0 | 0.0 | 0.00 | 0.00 | 0.00 | 71 | 1014.8 |
| 20260902075758 | 80 | 138 | 0.0 | 0.0 | 0.00 | 0.00 | 0.00 | 71 | 1014.8 |
| 20260902075659 | 80 | 138 | 0.0 | 0.0 | 0.00 | 0.00 | 0.00 | 71 | 1014.7 |
| 20260902075558 | 80 | 138 | 0.0 | 0.0 | 0.00 | 0.00 | 0.00 | 71 | 1014.7 |
| 20260902075501 | 80 | 138 | 0.0 | 0.0 | 0.00 | 0.00 | 0.00 | 71 | 1014.7 |
| 20260902075158 | 80 | 138 | 0.0 | 2.0 | 0.00 | 0.00 | 0.00 | 71 | 1014.7 |
| 20260902075059 | 80 | 138 | 0.0 | 2.0 | 0.00 | 0.00 | 0.00 | 71 | 1014.7 |
| 20260902074959 | 80 | 138 | 0.0 | 2.0 | 0.00 | 0.00 | 0.00 | 71 | 1014.7 |
| 20260902074858 | 80 | 138 | 0.0 | 2.0 | 0.00 | 0.00 | 0.00 | 71 | 1014.7 |
| 20260902074759 | 80 | 138 | 0.0 | 2.0 | 0.00 | 0.00 | 0.00 | 71 | 1014.7 |
| 20260902074658 | 80 | 138 | 0.0 | 2.0 | 0.00 | 0.00 | 0.00 | 71 | 1014.7 |
| 20260902074616 | 80 | 138 | 0.0 | 2.0 | 0.00 | 0.00 | 0.00 | 71 | 1012.8 |
| 20260902074459 | 80 | 138 | 0.0 | 2.0 | 0.00 | 0.00 | 0.00 | 70 | 1014.7 |
| 20260902074358 | 81 | 136 | 0.0 | 0.0 | 0.00 | 0.00 | 0.00 | 70 | 1014.7 |
| 20260902074259 | 80 | 136 | 0.0 | 0.0 | 0.00 | 0.00 | 0.00 | 70 | 1014.7 |
| 20260902074158 | 81 | 136 | 0.0 | 0.0 | 0.00 | 0.00 | 0.00 | 70 | 1014.7 |
| 20260902074058 | 81 | 136 | 0.0 | 2.0 | 0.00 | 0.00 | 0.00 | 70 | 1014.7 |
| 20260902073958 | 81 | 136 | 0.0 | 2.0 | 0.00 | 0.00 | 0.00 | 70 | 1014.7 |
| 20260902073700 | 81 | 136 | 0.0 | 2.0 | 0.00 | 0.00 | 0.00 | 70 | 1014.7 |
| 20260902073559 | 81 | 136 | 0.0 | 2.0 | 0.00 | 0.00 | 0.00 | 70 | 1014.8 |
| 20260902073459 | 81 | 136 | 0.0 | 2.0 | 0.00 | 0.00 | 0.00 | 70 | 1014.7 |
| 20260902073359 | 81 | 136 | 0.0 | 2.0 | 0.00 | 0.00 | 0.00 | 69 | 1014.8 |
| 20260902073258 | 81 | 136 | 0.0 | 2.0 | 0.00 | 0.00 | 0.00 | 69 | 1014.8 |
| 20260902073101 | 81 | 136 | 0.0 | 2.0 | 0.00 | 0.00 | 0.00 | 70 | 1012.9 |
| 20260902072959 | 81 | 136 | 1.0 | 2.0 | 0.00 | 0.00 | 0.00 | 70 | 1014.8 |
| 20260902072559 | 81 | 136 | 0.0 | 2.0 | 0.00 | 0.00 | 0.00 | 69 | 1014.8 |
| 20260902072500 | 81 | 136 | 0.0 | 2.0 | 0.00 | 0.00 | 0.00 | 69 | 1014.8 |
| 20260902072359 | 81 | 136 | 0.0 | 2.0 | 0.00 | 0.00 | 0.00 | 69 | 1014.8 |
| 20260902072258 | 81 | 136 | 0.0 | 3.0 | 0.00 | 0.00 | 0.00 | 69 | 1014.8 |
| 20260902072200 | 81 | 136 | 0.0 | 3.0 | 0.00 | 0.00 | 0.00 | 69 | 1014.8 |
| 20260902071959 | 81 | 134 | 1.0 | 3.0 | 0.00 | 0.00 | 0.00 | 69 | 1014.8 |
| 20260902071859 | 81 | 134 | 1.0 | 4.0 | 0.00 | 0.00 | 0.00 | 69 | 1014.8 |
| 20260902071759 | 81 | 134 | 1.0 | 4.0 | 0.00 | 0.00 | 0.00 | 69 | 1014.8 |
| 20260902071659 | 81 | 134 | 1.0 | 4.0 | 0.00 | 0.00 | 0.00 | 68 | 1014.8 |
| 20260902071559 | 81 | 134 | 0.0 | 4.0 | 0.00 | 0.00 | 0.00 | 68 | 1012.9 |
| 20260902071458 | 81 | 134 | 1.0 | 4.0 | 0.00 | 0.00 | 0.00 | 68 | 1014.8 |
| 20260902071400 | 81 | 134 | 1.0 | 4.0 | 0.00 | 0.00 | 0.00 | 68 | 1014.8 |
| 20260902071259 | 81 | 130 | 1.0 | 4.0 | 0.00 | 0.00 | 0.00 | 68 | 1014.7 |
| 20260902071058 | 81 | 129 | 2.0 | 4.0 | 0.00 | 0.00 | 0.00 | 68 | 1014.7 |
| 20260902070900 | 82 | 130 | 1.0 | 3.0 | 0.00 | 0.00 | 0.00 | 68 | 1014.7 |
| 20260902070759 | 82 | 130 | 1.0 | 3.0 | 0.00 | 0.00 | 0.00 | 68 | 1014.7 |
| 20260902070659 | 82 | 130 | 1.0 | 3.0 | 0.00 | 0.00 | 0.00 | 68 | 1014.7 |
| 20260902070600 | 82 | 132 | 1.0 | 3.0 | 0.00 | 0.00 | 0.00 | 68 | 1014.7 |
| 20260902070259 | 82 | 132 | 2.0 | 4.0 | 0.00 | 0.00 | 0.00 | 67 | 1014.7 |
| 20260902070159 | 82 | 132 | 1.0 | 4.0 | 0.00 | 0.00 | 0.00 | 67 | 1014.8 |
| 20260902070059 | 82 | 138 | 1.0 | 4.0 | 0.00 | 0.00 | 0.00 | 67 | 1014.8 |
| 20260902065859 | 82 | 140 | 1.0 | 4.0 | 0.00 | 0.00 | 0.00 | 67 | 1014.8 |
| 20260902065759 | 82 | 140 | 1.0 | 4.0 | 0.00 | 0.00 | 0.00 | 67 | 1014.8 |
| 20260902065659 | 82 | 140 | 1.0 | 4.0 | 0.00 | 0.00 | 0.00 | 67 | 1014.7 |
| 20260902065559 | 82 | 140 | 1.0 | 4.0 | 0.00 | 0.00 | 0.00 | 67 | 1014.7 |
| 20260902065500 | 82 | 149 | 1.0 | 4.0 | 0.00 | 0.00 | 0.00 | 67 | 1014.8 |
| 20260902065358 | 82 | 150 | 1.0 | 4.0 | 0.00 | 0.00 | 0.00 | 67 | 1014.7 |
| 20260902065259 | 82 | 128 | 1.0 | 4.0 | 0.00 | 0.00 | 0.00 | 67 | 1014.7 |
| 20260902065159 | 82 | 133 | 2.0 | 4.0 | 0.00 | 0.00 | 0.00 | 67 | 1014.8 |
| 20260902065100 | 82 | 132 | 2.0 | 4.0 | 0.00 | 0.00 | 0.00 | 67 | 1014.8 |
| 20260902064758 | 82 | 141 | 1.0 | 3.0 | 0.00 | 0.00 | 0.00 | 66 | 1014.7 |
| 20260902064559 | 82 | 141 | 0.0 | 3.0 | 0.00 | 0.00 | 0.00 | 66 | 1012.8 |
| 20260902064500 | 82 | 133 | 1.0 | 3.0 | 0.00 | 0.00 | 0.00 | 66 | 1014.6 |
| 20260902064359 | 82 | 133 | 2.0 | 4.0 | 0.00 | 0.00 | 0.00 | 66 | 1014.7 |
| 20260902064258 | 83 | 128 | 2.0 | 4.0 | 0.00 | 0.00 | 0.00 | 66 | 1014.6 |
| 20260902064100 | 83 | 148 | 2.0 | 4.0 | 0.00 | 0.00 | 0.00 | 66 | 1014.6 |
| 20260902064000 | 83 | 150 | 2.0 | 4.0 | 0.00 | 0.00 | 0.00 | 66 | 1014.6 |